GFSSGP_con_mucape_000.txt.gz
CAPE
0 0 2 20 0 0 2 3 0 0 0 0 0 0 0 0 0 0 0 0 0 0 0 126 1944 1544 1217 1257 1293 1242 1278 808 85 0 0 0 0 0 0 0 0 11 32 60 99 23 10 51 43
0 0 0 0 0 6 16 0 0 0 0 0 0 0 0 0 0 0 0 0 0 0 0 0 1949 2130 1955 1826 1566 1417 1289 821 398 53 22 21 5 1 0 0 3 30 50 85 109 96 51 139 125
0 0 3 0 0 1 1 0 0 0 0 0 0 0 0 0 0 0 0 0 0 0 0 0 676 2381 2258 1837 1435 1285 1166 787 486 298 235 185 77 58 6 13 4 62 70 123 150 209 106 80 191
0 0 0 0 13 0 0 0 0 0 0 0 0 0 0 0 0 0 0 0 0 0 0 0 31 674 1645 1717 1601 1695 993 651 478 276 316 209 229 165 85 33 35 11 22 117 198 127 169 257 272
0 0 1 3 4 0 0 0 0 0 0 0 0 0 0 0 0 0 0 0 0 0 0 0 283 691 1239 1367 1062 1115 871 828 446 258 205 320 441 175 151 101 73 60 16 25 73 210 216 256 560
0 0 0 7 18 5 0 0 0 0 0 0 0 0 0 0 0 0 0 0 0 0 0 0 186 825 585 880 594 375 208 162 120 114 119 123 127 144 150 134 119 103 82 15 4 121 251 311 514
0 0 0 0 0 1 0 0 0 0 0 0 0 0 0 0 0 0 0 0 0 0 0 0 0 0 0 0 0 0 0 0 16 11 20 55 66 117 158 138 156 120 100 79 9 9 299 302 249
0 0 0 0 7 8 1 0 0 0 0 0 0 0 0 0 0 0 0 0 0 0 0 0 0 0 0 0 0 0 0 0 2 8 17 92 81 102 141 213 179 133 154 117 16 0 242 281 330
0 0 0 0 5 14 8 0 0 0 0 0 0 0 0 0 0 0 0 0 0 0 0 0 0 0 0 0 0 0 0 0 4 7 12 17 68 90 197 156 134 138 97 119 71 38 236 299 272
0 0 0 0 1 4 2 0 0 0 0 0 0 0 0 0 0 0 0 0 0 0 0 0 0 0 0 0 12 26 23 8 8 8 9 21 75 225 88 75 101 218 182 140 107 97 265 363 346
0 0 0 0 0 0 0 0 0 0 0 0 0 0 0 0 0 0 0 0 0 0 0 0 0 0 0 1 16 22 20 18 14 11 53 15 100 355 347 98 126 254 159 209 195 107 240 295 490
0 0 0 0 0 0 0 0 0 0 0 0 0 0 0 0 0 0 0 0 0 0 0 0 0 0 1 10 24 23 29 21 42 52 10 231 286 330 323 403 75 362 317 278 325 141 296 493 597
0 0 0 0 0 0 0 0 0 0 0 0 0 0 0 0 0 0 0 0 0 0 0 0 0 0 10 25 30 26 58 68 70 67 91 335 319 314 229 151 167 221 299 347 465 250 430 654 646
0 0 0 0 0 1 1 0 0 0 0 0 0 0 0 0 0 0 0 0 0 0 0 0 0 12 28 65 72 98 139 148 85 36 120 298 359 398 445 139 232 542 454 375 404 362 412 719 619
0 0 0 0 0 0 1 0 0 0 0 0 0 0 0 0 0 0 0 0 0 0 0 0 0 19 67 126 116 157 176 220 197 194 222 302 458 491 385 272 112 199 431 525 544 564 655 650 598
0 0 0 1 0 0 0 0 0 0 0 0 0 0 0 0 0 0 0 0 0 0 0 0 0 14 69 124 219 233 252 351 448 483 424 378 525 597 620 701 702 724 796 734 548 550 514 510 523
0 0 3 2 0 0 0 0 0 0 0 0 0 0 0 0 0 0 0 0 0 0 0 0 0 2 49 41 113 191 294 332 355 350 375 360 548 648 762 840 809 799 772 810 724 471 588 556 568
0 0 0 0 0 0 0 0 0 0 0 0 0 0 0 0 0 0 0 0 0 0 0 0 0 0 26 162 109 276 477 505 353 171 68 203 484 507 787 851 760 755 609 756 822 750 575 574 677
0 0 0 0 0 0 0 0 0 0 0 0 0 0 0 0 0 0 0 0 0 0 0 0 0 0 0 87 236 246 331 108 268 146 73 18 228 370 570 684 692 601 649 712 820 817 744 779 807
0 0 0 0 0 0 0 0 0 0 0 0 0 0 0 0 0 0 0 0 0 0 0 0 0 0 0 52 341 371 368 107 9 34 57 64 28 299 439 660 599 570 524 712 777 844 795 981 1134
0 0 0 0 0 0 0 0 0 0 0 0 0 0 0 0 0 0 0 0 0 0 0 0 0 0 0 230 196 732 527 131 439 140 214 136 80 145 297 357 414 532 517 656 1024 1068 992 956 1281
0 0 0 0 0 0 0 0 0 0 0 0 1 0 0 0 0 0 0 0 0 0 0 0 0 0 15 194 85 286 585 260 268 533 393 199 186 91 226 325 411 598 507 1036 1311 1287 1059 1263 1096
0 0 0 0 0 0 0 0 0 0 0 0 0 26 4 7 0 0 0 0 0 0 0 0 3 0 169 227 72 61 239 947 666 371 385 359 440 277 220 261 437 651 1102 1063 1017 1135 1088 1100 646
0 0 0 0 0 0 0 0 0 0 0 0 0 64 38 20 0 0 0 0 0 0 0 0 1 0 28 168 111 70 78 146 474 412 302 160 524 660 353 208 235 660 864 1051 1357 1070 1269 1355 1203
0 0 0 3 7 0 0 0 0 0 0 0 4 11 38 26 0 0 0 0 0 0 0 0 0 0 0 0 31 14 74 119 144 199 145 195 317 612 378 263 389 614 692 855 985 1197 1198 1208 670
0 0 0 2 6 10 0 0 0 0 0 49 99 213 69 7 0 0 0 0 0 0 0 0 0 0 0 0 0 2 18 16 73 464 280 228 312 113 160 169 388 295 525 634 988 1107 1232 1287 492
0 0 0 0 0 2 0 1 0 0 18 86 183 137 33 0 0 0 0 0 0 0 0 0 0 0 0 0 0 0 0 2 73 857 691 250 178 289 251 272 193 473 609 560 812 1482 1300 897 222
0 0 0 0 0 12 4 0 10 25 94 488 327 192 26 0 0 0 0 0 0 0 0 7 8 0 0 0 0 0 0 0 51 276 300 256 163 36 10 163 446 413 606 743 927 1165 778 571 303
0 0 0 0 3 6 21 26 8 8 223 508 549 262 41 0 0 0 0 0 0 0 0 0 22 0 0 0 0 0 0 0 7 34 69 106 30 46 58 31 13 63 292 277 925 796 327 288 124
0 0 0 0 0 0 3 11 15 36 402 576 699 302 36 0 0 0 0 0 0 0 0 0 10 0 0 0 0 0 0 0 0 16 58 123 250 133 65 42 28 3 6 43 429 644 500 497 352

GFSSGP_con_mucape_003.txt.gz
CAPE
0 0 0 35 12 1 10 47 0 0 1 0 0 0 0 0 0 0 0 0 0 0 0 524 1705 1095 969 1176 1144 1242 1285 951 394 63 0 3 1 0 0 0 0 0 4 19 54 129 51 33 142
0 0 29 95 0 40 16 5 1 0 0 0 0 0 0 0 0 0 0 0 0 0 0 0 1800 1878 1737 1718 1726 1683 1271 1110 603 270 50 56 44 8 0 0 0 1 4 17 57 119 135 106 221
5 9 0 53 57 69 15 5 0 1 0 0 0 0 0 0 0 0 0 0 0 0 0 0 2252 2242 2142 1961 1997 1874 1311 958 411 35 140 192 155 99 74 37 29 18 8 24 103 169 240 141 178
0 0 0 0 26 29 0 0 0 0 0 0 0 0 0 0 0 0 0 0 0 0 0 113 847 998 1340 1826 1779 1701 1232 694 341 53 219 418 246 272 142 186 126 68 15 38 152 280 273 297 411
0 0 10 68 64 46 0 5 0 0 0 0 0 0 0 0 0 0 0 0 0 0 0 0 407 345 578 868 1061 1220 891 741 338 218 245 312 206 251 220 236 222 133 81 14 28 135 317 290 329
0 0 4 67 43 20 12 0 0 0 0 0 0 0 0 0 0 0 0 0 0 0 0 0 108 369 750 565 572 335 68 25 39 66 122 138 121 124 93 148 283 263 131 44 45 45 105 361 196
0 0 25 32 53 36 19 0 0 0 0 2 0 0 0 0 0 0 0 0 0 0 0 0 0 0 0 0 0 0 0 0 0 0 0 2 46 154 140 177 328 255 235 120 15 1 7 252 180
0 0 9 17 48 49 21 0 0 0 0 0 0 0 0 0 0 0 0 0 0 0 0 0 0 0 0 0 0 0 0 0 0 1 2 14 40 187 246 227 287 267 270 139 183 79 0 120 304
0 1 10 9 27 36 9 12 4 0 0 0 0 0 0 0 0 0 0 0 0 0 0 0 0 0 0 0 0 1 11 4 1 1 5 15 34 140 164 389 352 274 272 181 130 88 0 159 352
0 4 0 0 0 0 1 14 24 19 1 0 0 0 0 0 0 0 0 0 0 0 0 0 0 0 0 0 2 14 25 14 17 12 10 16 33 113 221 220 249 238 232 146 114 102 42 206 240
0 0 0 0 0 0 1 0 11 0 0 3 0 0 0 0 0 0 0 0 0 0 0 0 0 0 0 0 3 10 28 15 24 11 25 31 16 210 382 543 293 404 340 347 126 161 47 6 215
2 0 0 0 0 0 0 1 0 0 0 0 0 0 0 0 0 0 0 0 0 0 0 0 0 0 4 3 5 35 42 36 39 17 47 56 170 502 442 394 560 552 702 534 729 419 64 79 749
0 0 0 0 0 0 0 0 0 0 0 0 0 0 0 0 0 0 0 0 0 0 0 0 0 15 58 18 30 62 68 44 61 51 58 68 381 437 246 347 398 319 326 592 541 417 258 314 573
0 3 0 0 0 0 0 0 0 0 0 0 0 0 0 0 0 0 0 0 0 0 0 0 0 23 8 167 179 155 305 189 106 76 45 102 253 416 402 344 184 597 449 306 886 542 290 397 638
0 0 0 0 0 0 0 0 0 0 0 0 0 0 0 0 0 0 0 0 0 0 0 0 0 0 5 220 168 236 203 436 248 287 219 249 508 534 452 348 387 827 808 841 955 647 752 862 940
0 0 0 0 6 2 0 0 10 1 0 0 0 0 0 0 0 0 0 0 0 0 0 0 0 0 15 143 209 275 254 406 406 322 215 215 313 433 612 466 389 608 1224 1094 900 385 553 729 706
0 0 5 8 16 1 0 0 1 6 0 0 0 0 0 0 0 0 0 0 0 0 0 0 0 0 82 149 270 338 486 631 549 171 109 72 399 405 677 874 735 686 1108 1088 805 931 814 957 754
2 22 30 17 78 35 16 5 20 13 0 1 0 0 0 0 0 0 0 0 0 0 4 0 0 74 118 226 242 535 773 578 500 77 12 9 185 359 714 943 888 937 1084 964 907 906 1106 811 685
0 13 37 41 60 52 40 6 43 81 10 0 0 0 0 0 0 0 2 0 0 0 15 15 0 72 16 63 441 384 840 218 201 203 67 118 37 230 500 895 873 931 1056 999 1017 737 1047 1169 989
0 7 4 6 28 56 30 5 11 0 0 0 0 0 6 16 0 0 25 0 0 0 1 15 17 18 11 74 890 594 759 675 101 351 245 107 137 242 341 679 568 660 860 813 941 1116 1141 1150 1504
4 0 1 7 41 43 11 0 6 4 0 0 0 0 15 61 35 13 26 0 0 0 5 0 10 10 76 509 548 497 719 763 788 621 349 204 112 191 368 435 417 496 640 853 1155 1083 861 1074 1311
9 0 0 1 19 21 14 9 5 4 0 0 0 0 16 83 69 30 37 4 0 0 1 0 4 21 179 286 92 349 743 1137 859 699 808 527 196 189 269 362 440 537 540 1157 972 1497 1103 1611 1157
0 0 3 6 3 3 2 0 6 3 11 0 0 3 44 117 72 52 29 7 0 0 0 0 41 27 283 159 189 304 621 824 1109 990 674 636 447 244 188 322 438 490 845 1306 1062 1194 1194 1816 1086
0 0 0 3 2 0 0 1 18 16 4 0 0 8 142 135 65 41 33 0 0 0 0 14 73 0 100 176 53 278 384 649 795 520 535 425 800 412 288 277 508 727 904 1238 1436 1239 1507 1498 1322
0 0 0 5 73 7 12 1 2 0 0 0 4 101 205 136 69 49 28 0 0 0 0 14 11 0 0 5 2 85 217 349 707 675 487 343 716 136 412 439 565 987 997 1127 1149 1545 1486 1556 893
0 0 0 9 45 75 18 0 16 0 0 0 1 113 335 152 64 50 25 0 0 0 0 0 1 0 0 0 2 20 79 599 1300 394 379 105 215 216 381 556 526 576 737 1067 1176 1576 1466 1482 720
0 0 0 3 0 6 61 22 8 0 0 4 48 324 401 172 61 37 10 0 0 0 0 0 4 0 0 0 0 5 70 662 937 785 677 485 402 422 377 365 595 576 601 916 1050 1439 949 1061 1039
0 0 0 0 1 29 55 30 42 0 53 366 400 418 344 106 21 3 0 6 0 0 0 0 3 0 0 0 0 0 33 358 477 251 367 463 144 295 302 462 531 605 609 760 1125 1402 783 607 461
0 0 0 2 3 23 81 86 26 2 158 450 458 429 215 46 0 0 0 11 0 0 0 0 11 0 0 0 0 0 8 86 98 278 427 112 282 104 480 460 472 570 700 855 1310 1352 933 453 202
0 0 0 0 0 5 94 149 3 0 140 294 394 340 99 11 0 0 2 1 0 0 0 0 6 0 0 0 0 0 4 15 146 329 685 412 565 62 64 307 389 387 515 874 940 731 722 313 162

GFSSGP_con_mucape_009.txt.gz
CAPE
0 0 0 0 0 0 0 0 16 2 0 0 0 0 0 0 0 0 0 0 26 0 219 1238 1606 1535 1248 1266 1262 1153 1030 887 279 167 99 1 0 0 0 0 0 0 0 0 0 0 1 4 8
0 0 0 0 0 0 7 0 1 0 0 0 0 0 0 0 0 0 0 0 143 72 448 659 1760 1632 1593 1546 1407 1278 1279 1133 739 537 385 206 13 2 0 18 28 12 4 7 4 2 2 0 2
0 0 0 7 48 6 28 1 0 0 0 0 0 0 0 0 0 0 0 0 158 253 124 574 1919 1720 1805 1791 1634 1576 1536 1472 913 652 186 70 39 98 78 90 110 101 70 33 16 5 5 1 3
0 2 7 0 7 5 0 7 0 0 0 0 0 0 0 0 0 0 0 0 0 0 240 1357 1942 1842 1978 1673 1759 1923 1690 1171 901 560 115 47 37 230 266 73 85 85 111 105 67 9 7 10 51
6 4 0 22 25 16 0 4 0 2 0 0 0 0 0 0 0 0 0 0 0 95 722 1576 2029 2256 2134 1648 1535 1782 1238 844 395 277 147 94 90 99 132 122 110 122 155 137 168 63 26 73 161
4 0 0 0 5 18 2 7 0 0 0 0 0 0 0 0 0 0 0 0 0 0 125 607 1550 1332 1104 1071 1114 948 363 167 72 0 0 3 29 29 67 84 86 104 117 111 247 236 321 330 117
0 0 0 0 0 0 4 3 0 1 0 0 0 0 0 0 0 0 0 0 0 0 0 2 41 371 1146 1281 1098 496 2 0 0 0 0 0 0 1 4 5 12 78 111 156 499 411 408 387 99
0 1 0 0 0 0 4 0 0 0 0 0 0 0 0 0 0 0 0 0 0 0 0 0 3 16 76 123 160 0 0 0 0 0 0 0 5 3 2 1 4 47 146 254 537 515 448 523 393
1 0 0 0 0 2 0 0 0 0 0 0 0 0 0 0 0 0 0 0 0 0 0 0 0 0 0 0 0 1 0 0 0 0 0 0 0 0 0 3 46 246 346 358 606 583 492 500 212
6 3 0 0 0 0 2 0 0 0 0 0 0 0 0 0 0 0 0 0 0 0 0 0 0 0 0 0 0 0 0 12 0 0 0 0 0 0 0 0 20 109 394 520 555 594 570 332 49
17 0 0 0 0 0 0 0 0 0 0 0 0 0 0 0 0 0 0 0 0 0 0 0 0 0 0 0 0 0 0 0 0 0 0 0 0 0 0 0 0 12 108 225 393 412 398 310 40
18 0 0 0 0 0 0 0 0 0 0 0 0 0 0 0 0 0 0 0 0 0 0 0 0 0 1 6 0 0 0 0 0 0 0 0 0 0 1 2 1 1 2 230 308 327 342 212 46
8 0 0 0 2 5 0 0 0 0 0 0 0 0 0 0 0 0 0 0 0 0 0 0 0 11 42 24 2 0 0 0 0 0 0 1 0 1 17 20 6 0 7 122 237 301 231 121 45
0 4 0 0 6 7 0 0 0 0 0 0 0 0 0 0 0 0 0 0 0 0 0 0 2 41 36 44 2 0 0 0 0 0 13 0 12 24 18 14 0 0 0 68 164 177 191 133 61
0 0 0 0 0 0 0 0 0 0 0 0 0 0 0 0 0 0 0 0 0 0 0 0 0 4 1 0 2 19 2 0 5 8 11 7 37 48 24 31 16 12 0 29 157 209 174 122 65
0 0 0 0 0 0 0 0 0 0 0 0 2 0 0 0 0 0 0 0 0 0 0 0 0 0 0 34 7 37 1 9 71 37 23 12 34 32 22 47 58 24 0 9 110 165 154 184 225
0 0 0 0 0 0 0 0 0 0 0 0 0 11 19 0 0 0 0 0 0 0 0 0 0 0 8 15 1 59 6 144 229 95 5 0 0 0 9 62 65 91 0 14 33 73 182 164 191
0 0 0 0 0 0 0 0 0 0 3 0 0 6 15 4 0 0 0 0 0 0 0 0 0 2 48 0 37 25 84 343 338 114 8 0 0 0 8 128 78 86 12 43 92 93 190 188 314
0 0 0 0 0 0 0 0 1 4 2 4 26 15 42 39 2 0 0 0 0 0 17 14 0 0 7 0 103 69 163 38 79 85 22 14 0 0 0 130 99 103 46 50 63 74 118 262 199
0 0 0 0 0 0 0 0 14 20 19 28 9 0 0 1 0 1 3 0 0 0 2 107 14 25 0 42 330 233 288 186 160 82 58 28 18 9 5 79 111 129 141 84 88 173 229 161 172
0 0 0 0 0 0 0 0 0 4 14 0 0 0 0 0 1 4 4 0 0 0 0 84 47 0 7 206 287 71 57 53 64 96 50 16 35 30 42 117 111 162 155 149 122 117 105 111 187
0 0 0 0 0 0 0 0 0 0 0 0 0 0 0 0 1 8 18 0 0 0 2 50 5 0 44 30 55 117 139 61 65 59 49 64 42 36 63 116 109 136 159 128 196 185 111 71 119
0 0 0 0 0 1 0 0 0 0 0 0 0 0 0 0 20 29 37 0 0 0 0 4 0 8 134 115 62 268 105 138 87 14 17 13 23 89 79 153 194 84 184 130 187 18 164 14 150
0 0 0 0 2 0 0 0 0 0 0 0 0 0 5 4 13 27 16 1 0 0 1 5 10 45 154 233 78 40 44 41 27 8 20 25 45 57 112 92 226 122 170 189 256 4 94 3 162
0 0 0 0 0 0 0 0 0 0 0 0 0 24 24 0 0 34 25 3 0 0 0 0 42 0 0 36 5 15 2 41 30 1 1 27 52 45 81 130 321 225 109 370 249 144 122 68 291
0 0 0 0 0 0 1 0 3 0 0 2 0 29 40 26 38 17 12 2 0 0 0 1 16 0 0 0 19 20 4 12 8 11 16 93 86 48 101 206 286 241 287 378 301 200 185 336 341
0 0 0 0 0 0 0 0 6 0 0 0 5 37 32 30 54 59 0 0 0 0 0 0 16 0 0 0 0 67 13 42 46 116 20 114 109 159 273 307 378 402 447 313 261 352 326 389 251
0 0 4 0 0 0 0 0 0 2 0 10 28 55 89 117 104 11 0 0 0 0 0 0 2 0 0 0 0 114 94 128 117 130 79 66 125 148 285 343 383 357 328 272 280 334 324 221 177
0 0 3 0 0 0 0 0 0 0 28 78 108 159 138 155 47 3 0 0 0 0 0 0 0 0 0 0 0 77 129 119 124 65 0 67 107 108 183 278 370 376 476 335 214 145 151 78 4
0 0 0 0 0 0 0 0 172 145 68 150 189 205 200 89 4 0 0 0 0 0 0 0 0 0 0 0 0 32 75 100 85 131 4 55 126 183 203 245 318 290 291 242 213 161 67 34 37

GFSSGP_con_mucape_012.txt.gz
CAPE
4 0 0 0 0 1 8 18 6 0 0 0 0 0 0 0 0 0 3 10 0 0 198 1096 1454 1366 1192 1053 938 839 775 477 112 39 23 4 0 0 0 0 0 0 0 0 0 0 0 0 8
0 0 0 0 0 2 0 1 4 0 0 0 0 0 0 0 0 0 0 4 0 0 161 756 1674 1517 1437 1386 1371 1323 1068 675 335 296 235 311 132 9 0 0 0 1 3 8 5 1 0 0 0
0 0 0 1 48 5 16 11 0 0 0 0 0 0 0 0 0 0 0 0 0 0 128 514 1803 1640 1649 1566 1595 1504 1195 958 671 714 508 495 192 146 68 20 59 60 61 19 11 14 7 0 2
0 0 0 1 0 0 6 1 0 0 0 0 0 0 0 0 0 0 0 43 0 1 105 545 1973 1869 1933 1593 1418 1424 1076 1020 1110 910 623 268 94 332 424 168 121 80 19 58 60 25 12 10 9
0 15 0 1 16 29 0 0 14 0 0 0 0 0 0 0 0 0 0 48 38 108 110 924 2097 2091 2168 1807 1520 1623 1681 1748 1175 756 611 270 353 465 159 93 71 71 64 80 127 103 130 159 64
1 0 0 0 0 1 0 0 0 0 0 0 0 0 0 0 0 0 0 0 9 283 698 1264 1917 2026 2020 2203 2078 2051 1796 1155 783 480 325 223 152 130 118 119 102 84 83 116 128 174 329 362 231
0 0 0 0 0 8 5 0 0 0 0 0 0 0 0 0 0 0 0 0 51 264 555 777 1134 1539 2216 1851 1515 1465 1045 665 296 16 0 0 0 0 8 13 60 33 83 118 130 218 507 535 437
0 0 0 0 0 0 6 6 0 0 0 0 0 0 0 0 0 0 0 0 0 2 16 58 229 357 418 723 952 870 623 84 0 0 0 0 0 0 1 10 17 26 19 28 117 229 613 478 569
0 0 0 0 1 0 1 1 0 0 0 0 0 0 0 0 0 0 0 0 0 0 0 0 4 28 46 31 90 430 73 2 1 2 0 3 0 0 0 0 12 48 173 182 154 246 395 499 513
0 0 0 0 0 0 1 0 1 2 5 0 0 0 0 0 0 0 0 0 0 0 0 0 0 0 0 0 0 32 0 0 2 0 0 0 0 0 0 0 1 13 20 240 341 460 543 570 145
1 0 0 0 0 1 0 0 6 7 0 0 0 0 0 0 0 0 0 0 0 0 0 0 0 0 0 0 0 0 0 0 0 0 0 0 0 0 0 0 0 0 0 5 141 258 470 379 272
0 0 0 0 0 0 0 0 0 0 0 0 0 0 0 0 0 0 0 0 0 0 0 0 0 0 0 1 1 0 0 0 0 0 0 0 0 0 0 0 2 3 0 0 87 270 414 364 384
0 0 1 0 0 0 4 0 0 0 0 0 0 0 0 0 0 0 0 0 0 0 0 0 0 2 36 61 3 0 0 0 0 0 0 0 0 1 8 15 15 13 0 0 86 234 338 417 368
0 0 0 0 0 0 0 0 1 0 0 0 0 0 2 0 0 0 14 6 0 0 0 0 0 38 84 22 2 0 0 0 0 0 0 0 0 7 28 7 3 0 0 2 24 194 314 309 262
0 0 0 0 0 0 0 0 0 0 0 0 0 2 4 0 0 0 17 9 10 0 0 0 13 51 36 0 0 1 7 0 0 0 0 0 2 19 27 5 0 0 0 0 10 75 196 243 237
0 0 0 0 0 0 0 0 0 0 0 0 1 1 0 0 0 0 0 0 18 0 3 2 16 9 7 0 2 1 19 0 0 83 40 4 4 2 11 0 0 10 2 0 0 83 165 144 115
0 0 0 0 0 0 0 0 0 0 0 0 0 0 4 0 2 1 14 12 29 10 6 2 4 4 1 0 0 0 1 0 104 156 40 11 0 0 0 0 16 29 34 0 1 105 134 187 207
0 0 0 0 0 0 0 0 0 0 0 0 0 5 0 0 0 18 47 44 39 6 5 5 4 10 13 21 0 11 0 65 247 172 38 20 0 0 0 0 56 29 28 0 0 4 72 140 100
0 0 0 0 0 0 0 0 0 0 0 0 6 1 1 4 16 66 71 98 20 0 7 0 0 0 20 0 27 38 33 74 27 44 51 48 19 0 0 5 75 44 6 2 0 12 31 80 102
0 0 0 0 0 0 0 0 0 0 5 1 4 0 4 37 23 39 84 49 5 0 0 5 8 1 5 1 155 149 118 63 44 75 82 37 33 35 4 2 38 54 24 10 0 41 75 125 131
0 0 0 0 0 0 0 0 0 0 2 1 0 0 3 0 27 53 34 13 6 0 0 44 6 7 0 73 39 1 5 38 23 42 37 31 40 13 10 26 54 51 16 0 32 40 69 142 139
0 0 0 0 0 0 0 0 0 0 0 0 0 0 0 0 12 12 10 0 4 0 0 10 13 0 36 52 0 97 53 45 49 18 16 35 31 28 39 84 45 70 62 26 28 63 73 83 107
0 0 0 0 0 0 0 0 0 0 0 0 0 0 0 0 0 0 0 6 0 0 0 9 0 82 65 54 17 12 0 27 12 0 0 4 40 65 66 62 64 35 76 47 72 54 19 62 81
0 0 0 0 0 0 0 0 0 0 0 0 0 0 0 0 0 0 2 0 0 0 5 1 0 14 77 100 4 0 0 0 0 4 18 37 36 60 57 127 73 99 101 88 43 38 48 51 117
0 0 0 0 0 0 0 0 0 0 0 0 0 0 0 0 0 0 0 3 0 0 0 0 0 8 20 30 0 0 0 0 0 0 0 26 21 40 39 97 106 32 122 101 40 14 17 3 80
0 0 0 0 0 0 0 0 0 0 0 0 0 0 1 4 2 4 0 1 0 0 0 0 6 0 0 0 0 0 0 0 0 2 32 30 15 19 0 68 159 76 146 193 125 14 58 0 20
0 0 0 0 0 0 0 0 0 0 0 0 0 0 2 12 4 1 17 0 0 0 0 0 3 0 0 0 0 0 0 2 37 13 10 35 32 42 54 105 111 204 210 162 105 99 154 99 125
0 0 0 0 0 0 0 0 0 0 0 0 0 0 1 1 6 29 0 0 0 0 0 0 0 0 0 0 0 2 0 44 64 34 8 46 93 150 195 229 183 205 212 176 145 152 140 183 218
0 0 0 0 0 0 0 0 0 0 0 0 0 0 0 12 19 14 0 0 0 0 0 0 0 0 0 0 0 13 43 72 6 0 15 60 86 174 136 218 228 228 190 177 138 146 163 152 124
0 0 0 0 0 0 0 0 0 0 0 0 1 6 4 11 20 2 0 0 0 0 0 0 0 0 0 0 0 2 3 21 1 0 28 54 61 117 157 217 209 193 137 113 149 129 104 77 89

GFSSGP_con_mucape_015.txt.gz
CAPE
8 0 0 0 0 0 0 0 0 0 0 0 0 0 0 0 0 0 0 28 0 0 0 1033 1419 1190 871 780 625 495 326 177 6 0 0 0 0 0 0 0 0 0 0 0 0 0 0 0 0
0 0 0 6 0 0 0 8 19 0 0 0 0 0 0 0 0 0 1 44 9 1 44 695 1554 1357 1215 1167 1005 827 516 256 47 6 17 76 90 56 0 0 4 6 9 9 11 2 0 1 0
0 0 0 4 16 1 0 6 0 0 0 0 0 0 0 0 0 0 0 1 0 0 110 429 1627 1483 1514 1345 1320 1123 776 605 349 303 361 311 463 222 146 20 3 16 31 23 15 9 11 3 4
0 0 0 0 0 29 36 16 0 0 0 0 0 0 0 0 0 0 0 0 0 0 18 354 1700 1722 1777 1635 1508 1381 940 731 648 682 790 641 432 202 246 176 112 106 74 52 34 32 80 47 23
0 15 36 15 4 10 4 0 0 0 0 0 0 0 0 0 0 0 60 6 0 0 49 433 1858 1945 2011 1818 1620 1431 1413 1366 1059 1067 947 664 437 288 153 110 95 114 97 65 41 89 156 113 62
0 0 0 0 0 0 0 0 0 0 0 0 0 0 0 0 0 0 81 36 4 10 88 375 1770 2019 2079 2095 1998 1916 1863 1822 1586 1377 921 675 378 193 208 182 122 78 67 98 96 136 178 276 204
0 0 0 0 0 0 0 3 0 0 0 0 0 0 0 0 0 0 28 40 16 95 274 750 1388 1680 2159 2093 2066 2111 2212 1940 1387 1010 701 277 30 3 10 5 25 30 54 76 106 126 279 372 228
0 0 0 0 0 0 0 2 4 0 0 0 0 0 0 0 0 0 0 0 30 341 445 704 1009 1119 1107 1506 2298 2079 1612 1107 824 475 1 0 3 24 2 16 12 13 26 60 103 74 399 480 357
0 0 0 0 0 0 0 0 0 14 0 0 0 0 0 0 0 0 0 0 51 295 433 579 480 558 708 702 727 1223 805 601 191 10 23 64 0 0 0 0 0 7 26 92 92 41 374 288 229
0 0 0 0 0 0 0 0 0 1 2 0 3 3 2 0 0 0 0 0 1 27 41 62 139 160 181 51 15 191 108 14 3 5 1 0 0 0 0 0 3 12 23 54 128 181 231 250 169
0 0 0 0 0 0 0 0 0 0 0 4 10 0 0 0 0 0 0 0 0 0 0 1 1 7 1 0 0 0 17 0 0 0 0 0 0 0 0 0 0 0 0 0 3 6 115 197 267
0 0 0 0 0 0 0 0 0 0 0 1 0 0 0 0 0 0 0 0 1 6 6 0 0 0 0 0 0 0 0 0 0 0 0 0 0 0 0 0 0 0 1 7 0 0 114 379 394
0 0 0 0 0 0 0 1 7 0 0 0 0 0 0 0 0 0 0 0 14 26 3 0 0 0 0 0 0 0 0 0 0 0 0 0 0 0 0 0 1 12 6 0 0 2 68 247 317
0 0 0 0 0 0 0 12 1 0 0 0 0 0 0 0 0 0 0 0 4 39 14 0 0 0 0 1 0 2 0 0 0 0 0 0 0 0 0 12 9 1 0 0 0 0 75 220 278
0 0 0 0 0 0 1 0 0 0 0 0 0 0 0 2 0 2 0 0 0 21 18 0 0 0 15 0 5 5 0 0 0 1 0 0 0 0 0 5 14 0 0 0 0 0 63 226 209
0 0 0 0 0 0 0 0 0 0 0 0 0 0 0 0 0 0 1 0 3 5 2 0 0 19 1 0 1 3 0 1 1 0 3 9 0 0 0 8 1 0 0 0 0 0 33 122 194
0 0 0 0 0 0 0 0 0 0 0 0 0 0 0 0 0 4 3 0 0 18 7 0 8 10 0 2 7 0 5 3 1 47 54 7 0 0 0 0 0 0 4 8 0 0 42 130 134
0 0 0 0 0 0 0 0 0 0 0 0 0 0 1 0 0 1 8 21 28 30 18 0 0 0 0 18 0 0 24 4 46 47 89 14 15 1 0 0 0 14 20 18 0 0 84 168 209
0 0 0 0 0 0 0 0 0 0 0 0 0 0 5 0 0 9 20 50 35 49 37 0 0 1 10 5 0 90 18 31 16 1 17 34 45 10 0 0 0 45 16 0 0 0 22 79 103
0 0 0 0 0 0 0 0 0 0 0 0 0 0 0 0 12 45 31 56 59 41 14 0 0 1 4 0 103 87 72 37 5 4 45 58 31 19 18 0 14 62 26 0 0 0 26 54 48
0 0 0 0 0 0 0 0 0 0 0 0 0 0 0 2 0 7 32 32 37 10 5 0 0 0 0 73 12 0 36 14 3 5 17 26 24 28 36 2 5 39 32 0 0 0 40 52 48
0 0 0 0 0 0 0 0 0 0 0 0 0 0 0 0 0 2 24 10 0 1 0 0 4 0 27 28 13 26 0 0 11 1 5 14 30 30 0 0 46 23 13 0 0 1 23 63 50
0 0 0 0 0 0 0 0 0 0 0 0 0 0 0 0 0 1 0 0 0 0 0 6 3 0 27 31 22 0 0 0 0 3 0 5 30 35 22 50 16 27 32 29 0 0 11 43 70
0 0 0 0 0 0 0 0 0 0 0 0 0 0 0 0 0 0 0 0 0 0 1 2 0 3 46 90 3 0 0 0 0 0 4 3 19 25 18 42 35 11 69 14 3 0 11 31 73
0 0 0 0 0 0 0 0 0 0 0 0 0 0 0 0 0 0 0 0 0 0 0 0 0 0 42 107 0 0 0 0 0 2 2 19 11 15 8 79 19 33 54 47 16 0 3 27 40
0 0 0 0 0 0 0 0 0 0 0 0 0 0 0 0 0 0 0 0 0 0 0 0 0 0 0 1 0 0 0 0 7 0 7 2 1 0 0 47 37 20 99 52 13 9 7 27 51
0 0 0 0 0 0 0 0 0 0 0 0 0 1 0 0 4 0 0 0 0 0 0 0 0 0 0 0 0 0 0 23 41 2 0 1 0 0 0 0 28 39 108 109 70 10 27 13 32
0 0 0 0 0 0 0 0 0 0 0 0 0 0 0 0 5 0 0 0 0 0 0 0 0 0 0 0 0 0 0 43 21 0 0 22 42 41 0 0 9 75 114 77 83 85 74 20 44
0 0 0 0 0 0 0 0 0 0 0 0 0 0 0 4 0 0 0 0 0 0 0 0 0 0 0 0 0 0 0 2 0 0 0 26 41 62 54 47 22 82 110 94 105 191 140 460 62
0 0 0 0 0 0 0 0 0 0 0 0 0 0 0 0 0 0 0 0 0 0 0 0 0 0 0 0 0 2 0 0 0 0 3 6 43 49 60 98 92 92 99 67 80 85 112 94 53

GFSSGP_con_mucape_021.txt.gz
CAPE
0 0 0 0 0 0 0 0 0 0 0 0 0 0 0 0 1 0 0 13 14 0 1 740 1349 1002 624 396 290 199 131 91 0 0 0 0 0 0 0 0 0 0 0 0 0 0 0 0 0
0 0 0 0 0 0 0 0 0 0 0 0 0 0 0 0 0 0 9 9 6 0 65 228 1430 1167 889 776 734 587 405 237 86 5 0 0 0 0 0 0 0 0 0 0 1 12 12 1 4
0 0 0 0 11 0 0 0 0 0 0 0 0 0 0 0 0 0 9 48 0 4 197 579 1572 1360 1167 1082 1062 981 796 576 202 9 0 0 0 5 106 76 38 14 3 4 22 18 13 14 12
0 0 0 0 0 0 0 0 0 0 0 0 0 0 0 0 0 0 14 80 0 0 186 532 1586 1571 1405 1351 1325 1226 1047 758 378 125 83 57 98 463 438 381 307 227 169 87 71 42 210 58 49
0 0 0 4 1 0 0 0 0 0 0 0 0 0 0 0 0 0 43 124 62 21 79 360 1625 1790 1698 1653 1624 1439 1245 1115 990 499 405 416 748 637 627 528 437 310 306 228 171 145 342 414 378
0 0 0 0 0 0 0 0 0 0 0 0 0 0 0 0 0 0 47 230 185 145 154 431 1423 1938 1825 1816 1740 1700 1558 1527 1493 1241 1204 1109 1172 837 663 508 258 180 217 233 252 152 398 225 212
0 0 0 0 0 0 0 0 0 0 0 0 0 0 0 0 0 0 41 223 132 249 261 551 911 1650 1914 1885 1805 1870 1861 1889 1902 1701 1623 1635 1030 989 559 132 17 3 14 86 139 110 248 192 114
0 0 0 0 0 0 0 0 0 2 0 0 0 0 0 0 0 1 69 148 99 194 376 529 984 1231 1245 1222 2073 2121 2142 2135 2045 1963 1880 1775 913 573 38 73 0 0 2 9 16 23 42 207 216
0 0 0 0 0 0 0 0 0 0 0 0 0 0 0 2 0 0 58 102 114 183 288 433 602 1058 1176 1100 1320 2170 1971 1870 1980 1615 1450 1177 348 68 73 26 18 0 1 2 5 13 38 63 101
0 0 0 0 0 0 0 0 0 0 0 0 0 1 0 14 9 1 34 73 146 227 291 334 541 927 1124 1050 1404 1583 1382 1169 1190 996 739 578 280 209 52 7 0 0 0 6 10 19 118 139 197
0 0 0 0 0 0 0 0 0 0 0 0 0 0 11 12 11 1 0 29 48 169 276 382 652 916 1049 1025 1250 1223 1160 907 873 870 666 330 188 203 149 28 0 2 0 3 8 9 6 8 62
0 0 0 0 0 0 0 0 0 0 0 0 0 0 0 9 3 5 0 5 40 79 193 384 604 786 1032 913 815 545 505 460 334 329 432 366 281 203 90 12 1 0 0 6 47 40 50 53 95
0 0 0 0 0 0 0 0 0 0 0 0 0 0 1 6 0 2 0 0 2 20 58 172 486 743 758 530 339 182 114 159 225 259 200 169 115 248 216 18 13 19 13 36 67 72 84 101 253
0 0 0 0 0 0 0 0 0 0 0 0 0 0 0 0 0 0 0 2 1 7 4 49 317 548 411 262 236 190 244 193 237 194 173 173 173 193 29 42 36 62 79 79 90 60 98 131 221
0 0 0 0 0 0 0 0 0 0 0 0 0 0 0 0 0 0 0 6 11 0 0 16 150 239 212 187 216 248 159 172 245 250 292 109 104 132 134 150 170 148 92 61 99 78 108 162 247
0 0 0 0 0 0 0 0 0 0 0 0 0 0 0 0 0 0 0 5 0 0 0 1 0 48 152 196 256 153 189 208 269 268 263 217 267 283 373 331 249 157 116 94 95 103 106 187 259
0 0 0 0 0 0 0 0 0 0 0 0 0 0 0 0 0 1 0 0 0 0 0 0 0 6 122 267 119 178 248 206 248 273 305 337 257 303 404 241 201 173 117 101 164 140 125 271 392
0 0 0 0 0 0 0 0 0 0 0 0 0 0 0 0 0 0 0 0 0 0 0 36 42 169 210 131 79 108 165 170 254 337 333 442 491 451 487 27 77 100 119 124 190 234 183 322 437
0 0 0 0 0 0 0 0 0 0 0 0 0 0 0 0 0 0 0 0 0 2 16 43 42 181 108 56 72 175 189 408 402 508 436 393 568 446 88 54 86 72 92 170 249 305 291 466 499
0 0 0 0 0 0 0 0 0 0 0 0 0 0 0 0 0 0 0 0 0 9 3 15 105 97 92 110 159 268 468 498 469 381 412 389 467 496 183 153 10 30 138 279 298 279 352 527 619
0 0 0 0 0 0 0 0 0 0 0 0 0 0 0 0 0 0 0 0 0 0 0 26 66 59 64 100 258 333 264 322 275 400 344 290 253 334 99 77 85 165 380 494 328 282 422 557 577
0 0 0 0 0 0 0 0 0 0 0 0 0 0 0 0 0 0 0 0 0 0 0 13 17 69 53 189 252 492 376 254 292 293 246 243 98 287 95 288 192 353 421 433 349 323 430 581 574
0 0 0 0 0 0 0 0 0 0 0 0 0 0 0 0 0 0 0 0 0 0 0 0 14 47 133 205 331 343 251 149 207 165 176 107 211 283 149 349 311 492 492 494 332 342 422 472 814
0 0 0 0 0 0 0 0 0 0 0 0 0 0 0 0 0 0 0 0 0 0 0 0 19 88 157 147 287 282 205 116 79 34 109 164 287 348 396 336 462 527 483 397 299 333 414 559 793
0 0 0 0 0 0 0 0 0 0 0 0 0 0 0 0 0 0 0 0 0 0 0 0 17 71 166 174 200 48 88 84 8 76 223 306 232 399 483 489 499 479 482 430 281 379 397 487 633
0 0 0 0 0 0 0 0 0 0 0 0 0 0 0 0 0 0 0 0 0 0 0 0 28 109 153 202 179 32 29 16 25 68 217 202 320 412 511 488 386 360 408 379 395 325 350 431 545
0 0 0 0 0 0 0 0 0 0 0 0 0 0 0 0 0 0 0 0 0 0 6 26 18 105 165 225 151 148 30 117 251 206 148 221 271 292 467 464 412 524 399 192 428 305 272 463 339
0 0 0 0 0 0 0 0 0 0 0 0 0 0 0 0 0 0 0 0 0 1 6 3 14 57 54 105 104 169 124 264 106 152 317 313 322 267 393 377 477 504 503 377 393 251 374 382 254
0 0 0 0 0 0 0 0 0 0 0 0 16 0 0 0 0 0 0 0 0 0 0 0 3 1 12 35 77 251 321 35 74 164 256 385 397 310 269 237 417 488 65 48 185 180 70 123 103
0 0 0 0 0 0 0 0 0 0 0 0 0 0 0 0 0 0 0 0 0 0 0 0 0 0 0 17 6 285 151 7 128 260 182 359 483 375 219 167 254 22 31 11 56 36 83 61 190

GFSSGP_con_mucape_024.txt.gz
CAPE
0 0 0 0 0 0 0 0 7 0 0 0 0 0 0 0 0 0 0 104 131 0 93 632 1203 1059 793 552 310 227 152 90 0 0 0 0 0 0 0 0 0 0 0 0 0 0 0 0 0
0 0 0 0 0 0 7 48 0 3 0 0 0 0 0 0 0 0 7 105 106 4 97 223 1338 1193 1005 747 547 443 356 258 41 0 0 0 0 0 0 0 0 0 0 0 1 3 3 2 0
0 0 0 0 51 28 107 24 12 0 0 0 0 0 0 0 0 0 54 152 130 33 66 282 1466 1317 1168 967 802 719 609 542 161 43 27 12 1 3 5 0 2 9 2 1 1 6 8 13 25
0 0 0 0 18 98 126 25 0 0 0 0 0 0 0 0 0 0 75 165 98 61 83 374 1605 1497 1354 1179 1170 1102 960 685 449 183 81 40 27 195 414 186 311 336 227 143 79 85 139 38 38
0 0 0 0 0 3 129 75 13 0 0 0 0 0 0 0 0 0 62 144 59 118 112 373 1690 1716 1617 1508 1448 1433 1318 1145 989 465 242 244 532 813 765 731 656 568 423 323 343 287 478 274 316
0 0 0 0 0 0 16 12 7 7 0 0 0 0 0 0 0 0 21 200 126 121 196 498 1653 1850 1771 1691 1643 1600 1534 1390 1311 1056 1061 1092 1178 1311 990 810 671 517 251 267 356 402 378 290 309
0 0 0 0 0 0 0 0 0 6 8 0 0 0 0 0 0 0 5 123 256 206 237 498 1167 1653 1945 1836 1775 1770 1644 1582 1613 1568 1521 1565 1612 1371 948 730 462 119 65 87 144 309 365 267 200
0 0 0 0 0 0 0 2 8 11 29 0 0 0 9 24 3 3 40 42 233 251 313 373 1014 1133 1195 1204 1991 1939 1959 1879 1934 1986 1949 1944 1672 1207 696 449 134 73 43 8 25 83 167 365 290
0 0 0 0 0 2 4 10 1 0 4 0 0 0 10 5 6 52 75 99 93 160 296 378 544 888 1134 982 1252 2002 1874 1910 2071 1814 1785 1673 838 466 488 348 68 40 0 2 6 6 8 42 127
0 0 0 0 0 5 8 0 0 0 3 1 6 12 11 39 58 87 109 82 107 175 185 387 603 906 1121 797 985 1646 1142 1268 1237 1064 1042 1107 619 505 318 256 77 41 0 0 0 3 11 178 154
0 0 0 0 0 2 0 0 0 0 0 1 0 1 21 41 52 84 126 99 63 109 203 299 770 1057 1186 930 1015 1386 1365 1197 1179 1294 1130 769 469 488 512 462 357 274 103 35 11 25 42 37 223
0 0 0 0 0 0 1 2 0 0 0 0 0 5 6 8 39 41 56 92 97 67 152 359 579 1162 1512 1025 1039 1201 1104 1013 857 729 926 890 691 587 655 465 261 250 178 55 26 39 47 44 36
0 0 0 0 0 0 8 1 0 0 0 0 0 0 4 3 0 3 11 24 133 95 130 395 746 1384 1593 1493 1180 1220 885 634 471 425 489 742 579 618 678 601 440 198 95 30 35 50 81 70 112
0 0 0 0 0 0 0 0 0 0 0 0 0 0 0 0 0 0 0 0 91 143 171 372 796 1298 1469 1655 1558 1099 749 386 479 262 432 782 717 745 750 759 426 407 413 175 68 74 95 100 112
0 0 0 0 0 0 0 0 0 0 0 0 0 0 0 0 0 0 0 0 42 167 255 384 798 1217 1734 1502 1279 856 459 457 252 330 723 787 929 863 994 755 624 592 880 522 324 75 117 106 112
0 0 0 0 0 0 0 0 0 0 0 0 0 0 0 0 0 0 0 0 6 172 230 390 388 976 1482 1384 939 509 386 327 301 568 705 910 992 987 966 752 675 827 853 536 291 96 121 126 126
0 0 0 0 0 0 0 0 0 0 0 0 0 0 0 0 0 0 0 0 34 141 263 241 430 842 1159 1111 593 545 466 375 459 650 708 827 1002 968 924 1109 857 782 757 701 532 288 196 165 297
0 0 0 0 6 0 0 0 0 0 0 0 0 0 0 0 0 0 0 0 1 71 140 197 347 671 819 630 511 358 331 354 496 661 765 854 1062 926 1045 1152 829 224 149 685 374 305 369 277 597
0 0 0 0 0 0 0 0 0 0 0 0 0 0 0 0 0 0 0 0 0 0 73 211 365 664 524 464 311 280 213 278 471 659 795 939 973 761 979 917 42 245 242 197 391 597 389 825 681
0 0 0 0 0 0 0 0 0 0 0 0 0 0 0 0 0 0 0 0 0 32 126 279 419 577 474 327 308 204 177 334 484 585 872 877 884 749 736 726 555 156 21 210 340 638 825 677 872
0 0 0 0 0 0 0 0 0 0 0 0 0 0 0 0 0 0 0 3 13 85 202 273 472 567 446 422 439 543 676 556 591 707 819 895 821 746 744 549 161 227 253 397 815 711 517 804 979
0 0 0 0 0 0 0 0 0 0 0 0 0 0 0 0 0 0 6 30 108 139 189 352 472 570 503 420 280 363 250 203 424 573 588 676 607 557 618 509 494 493 664 827 845 651 687 835 969
0 0 0 0 0 0 0 0 0 0 0 0 0 0 0 0 0 18 24 77 76 110 229 375 511 469 394 452 396 582 398 441 502 435 630 723 679 515 339 641 576 536 970 871 666 457 513 1001 1064
0 0 0 0 0 0 0 0 0 0 0 0 0 0 0 0 0 20 39 26 78 137 229 373 389 361 494 536 723 625 728 494 433 467 503 634 817 754 532 500 626 740 772 583 563 563 604 860 1067
0 0 0 0 0 0 0 0 0 0 0 0 0 0 24 15 62 59 49 91 111 146 207 261 283 400 423 518 625 562 805 673 682 638 588 652 741 810 665 682 707 750 669 656 596 683 651 826 1008
0 0 0 0 0 0 0 0 0 0 0 0 0 0 8 27 151 133 99 135 119 136 167 130 231 273 323 426 558 657 669 558 496 583 512 451 738 716 657 699 678 690 667 641 675 688 763 852 1022
0 0 0 0 0 0 0 0 0 0 0 0 0 0 0 82 204 150 164 135 129 165 184 195 121 115 252 495 545 760 720 678 585 574 446 488 612 500 625 620 650 689 641 693 752 890 830 833 932
0 0 0 0 0 0 0 0 0 0 0 0 0 0 19 171 178 158 151 145 145 195 220 160 46 179 357 410 498 676 725 575 555 652 414 398 479 361 535 607 586 640 655 670 720 708 731 764 662
0 0 0 0 0 0 0 0 0 0 0 0 15 77 253 196 170 164 130 138 159 197 172 29 97 187 277 299 413 688 655 408 503 525 479 436 435 401 431 478 526 593 692 702 712 609 550 462 626
0 0 0 0 0 0 0 0 0 0 8 13 192 240 234 182 157 116 101 97 172 167 68 13 105 86 160 206 241 631 559 367 528 494 588 587 528 330 246 323 482 393 397 543 444 411 422 412 344

GFSSGP_con_mucape_027.txt.gz
CAPE
0 0 0 0 0 0 0 0 6 10 0 0 0 0 0 0 0 1 32 46 0 9 360 403 921 851 639 413 241 166 117 34 0 0 0 0 0 0 0 0 0 0 0 0 0 0 0 0 0
0 0 0 0 0 0 2 0 30 47 49 0 0 0 1 0 0 0 4 68 5 24 483 134 1046 1004 879 741 489 395 302 140 39 0 0 0 0 0 0 0 0 0 0 0 1 0 2 5 0
0 0 0 0 0 1 74 74 40 40 7 0 0 0 0 1 0 0 66 95 45 26 449 255 1156 1128 1095 960 715 606 526 407 115 25 16 10 9 8 8 12 21 14 46 40 12 8 11 10 28
0 0 0 0 12 94 56 118 90 12 43 0 0 0 0 0 0 0 39 47 27 24 165 1080 1207 1347 1287 1141 962 873 748 645 386 150 129 75 62 82 54 39 65 163 236 235 192 170 98 89 107
0 0 0 0 0 0 34 49 88 59 65 15 9 0 9 1 0 0 43 46 30 29 53 716 1494 1519 1537 1366 1174 1116 1004 921 792 367 242 188 352 449 366 310 525 728 625 513 398 389 413 310 270
0 0 0 0 0 1 24 30 82 93 70 52 0 0 7 1 0 0 3 87 50 35 74 201 1672 1657 1622 1526 1367 1339 1287 1208 1125 993 830 773 907 869 650 788 984 721 566 303 202 230 433 398 297
0 0 0 0 1 1 8 10 32 37 33 49 9 0 14 75 4 0 14 53 111 64 119 150 1667 1664 1746 1666 1528 1535 1551 1533 1442 1360 1196 1330 1239 1398 1242 1200 827 615 277 87 88 91 151 366 284
0 0 0 0 0 0 2 11 1 28 47 14 0 2 40 41 15 31 34 61 67 147 131 192 633 1671 1374 939 1855 1807 1806 1762 1630 1615 1548 1661 1453 1595 1406 1225 758 341 90 108 11 4 46 145 378
0 0 0 0 0 2 7 5 28 16 18 26 4 8 1 10 0 7 28 44 84 84 187 258 214 693 1168 777 1125 1891 1641 1627 1758 1454 1578 1690 749 490 1047 1018 635 322 176 52 44 27 0 2 72
0 0 0 0 0 2 17 14 4 37 16 16 3 0 31 33 13 53 43 20 49 132 123 197 383 728 945 634 1308 1691 1054 1041 964 893 1046 1402 1251 782 531 674 279 256 226 115 26 5 15 25 0
0 0 9 30 44 26 31 39 28 26 54 27 54 0 24 25 53 61 20 14 46 86 148 196 1511 1768 1244 902 839 1599 1383 1087 1339 1475 2108 1819 933 543 539 676 802 579 695 415 297 219 131 46 23
0 0 13 16 34 25 19 46 58 40 28 29 0 0 0 20 19 22 6 3 20 44 191 127 611 2054 2310 1427 842 1075 1457 1512 1232 1198 2139 1739 938 919 828 690 571 638 438 475 326 136 481 88 36
0 0 0 0 0 9 1 1 14 5 23 12 0 0 0 5 11 0 0 0 10 10 58 149 873 2376 2573 2872 1178 1351 1593 1180 1184 972 1051 996 701 1219 808 967 709 1017 542 388 238 499 536 421 99
0 1 8 2 1 11 3 0 0 2 2 0 0 0 0 0 0 0 0 0 13 107 78 198 730 2609 2152 2484 3002 2340 2404 1197 818 617 589 989 874 1366 825 1119 945 696 722 555 450 277 320 354 248
0 4 8 1 8 1 2 0 0 0 0 0 0 0 0 0 0 0 0 49 35 22 559 826 1447 2559 2810 2634 2684 2178 1411 1094 759 536 826 592 1135 1215 1173 892 987 1067 1339 773 890 600 692 259 168
0 15 2 0 0 5 47 0 0 0 0 0 0 0 0 0 0 0 0 73 101 326 620 400 364 1197 2446 2698 2393 1823 990 767 392 375 477 998 1162 1193 1108 1064 971 1201 1171 1236 728 689 561 359 218
0 0 0 0 1 14 61 0 0 0 3 2 0 0 0 0 0 34 0 0 116 397 448 550 1119 966 2013 2709 2006 1749 1665 620 357 445 573 804 1094 1021 1347 1186 1196 1257 1139 1363 804 779 697 670 239
0 0 0 0 0 17 25 4 1 8 0 0 0 7 0 0 0 7 30 0 11 132 325 812 954 1615 2568 2051 1821 806 578 547 383 538 618 784 987 1201 1335 1261 1337 1234 953 236 403 657 717 758 771
0 0 0 0 0 15 0 2 31 9 0 0 0 7 1 0 0 0 0 122 108 157 555 749 779 2228 1992 1331 793 602 491 597 423 499 689 845 943 952 1413 1245 1139 886 409 586 606 181 107 914 593
0 0 0 0 0 22 3 27 11 1 0 0 0 0 0 0 0 0 0 334 189 333 530 624 807 1501 1471 982 1049 660 610 384 413 540 795 941 948 1385 1119 1213 1120 836 577 439 328 565 544 688 820
0 0 0 0 0 7 10 2 0 0 0 0 0 0 0 0 0 0 0 407 327 419 565 674 875 1135 1410 1352 1024 566 557 652 615 417 692 964 959 966 1133 1003 943 729 911 516 877 848 658 823 904
0 0 0 0 0 0 0 0 0 0 0 0 0 0 0 0 0 0 143 507 457 514 595 731 908 986 816 1046 1224 1282 580 338 446 553 413 1031 771 765 670 738 643 575 781 907 939 1123 948 992 889
0 0 0 0 0 0 0 0 0 0 0 0 0 0 0 0 0 0 306 504 554 512 542 792 855 731 773 701 919 595 462 215 296 310 656 1006 918 741 638 614 655 965 1262 781 892 822 846 1261 1206
0 0 0 1 0 0 0 0 0 0 0 0 0 0 0 0 0 92 443 563 497 430 614 752 777 768 638 504 650 772 711 445 411 639 702 1167 1259 1057 803 428 850 656 927 816 683 907 680 1047 1249
0 0 0 0 0 0 0 0 0 0 0 0 0 0 0 0 207 415 538 422 433 550 602 657 623 670 571 607 575 590 682 752 845 804 836 1068 976 970 963 760 727 906 797 702 828 1031 662 921 1094
0 0 0 0 0 0 0 0 0 0 0 0 0 0 62 242 445 504 441 459 466 505 544 454 592 515 474 471 513 514 665 984 1159 842 655 816 766 1118 705 650 719 712 632 698 645 1004 1228 918 1129
0 0 0 0 5 0 3 8 0 0 0 0 0 0 274 306 578 531 500 494 467 481 467 517 497 428 386 415 487 608 741 699 799 713 573 709 755 598 546 620 692 625 628 542 622 927 715 991 791
0 0 1 0 0 3 20 61 46 0 0 0 0 0 108 498 614 538 524 514 459 451 477 465 348 327 309 393 416 718 667 743 977 633 661 984 791 371 513 649 728 620 691 639 856 1055 791 930 324
0 2 0 0 0 15 42 34 52 0 0 3 21 0 170 621 593 569 488 479 456 458 415 332 249 219 332 346 392 1135 1024 587 959 814 613 615 271 342 383 530 579 605 693 742 939 963 633 693 434
0 0 0 0 0 0 37 55 0 0 9 64 49 28 482 598 563 526 469 452 477 457 353 151 210 209 267 271 328 1067 473 457 824 676 663 904 809 172 175 356 463 373 401 712 573 545 617 507 468

GFSSGP_con_mucape_030.txt.gz
CAPE
0 0 0 0 0 0 0 0 0 55 0 0 0 0 0 0 0 0 20 36 150 500 148 187 658 479 324 188 102 83 55 43 2 0 0 0 0 0 0 0 0 0 0 0 0 0 0 0 0
0 0 0 0 0 0 0 0 1 25 1 0 0 0 0 1 0 1 0 17 108 645 276 116 762 618 540 382 282 217 190 120 79 25 0 0 0 0 0 0 0 0 0 0 0 0 0 2 0
0 0 0 0 0 0 0 3 42 36 0 0 0 0 0 0 0 5 101 64 131 769 443 207 879 844 822 654 539 437 387 293 191 24 0 0 0 0 0 0 0 0 16 69 51 37 19 12 18
0 0 0 0 0 1 2 30 110 21 47 0 0 0 0 0 0 0 30 14 0 304 460 867 909 1014 1033 903 745 632 574 469 250 107 72 53 18 71 129 0 0 21 88 210 265 262 219 143 356
0 0 0 0 0 0 0 0 31 64 30 1 2 0 0 1 0 0 37 34 30 4 364 1172 1046 1178 1222 1200 923 804 734 636 534 442 273 366 382 378 334 250 193 397 592 581 493 415 477 381 353
0 0 0 0 0 0 0 0 0 19 49 49 0 0 0 3 0 0 15 101 9 44 149 1563 1268 1266 1327 1311 1101 953 844 841 819 734 719 671 634 646 625 699 634 862 661 497 348 169 218 605 604
0 0 0 0 0 0 0 1 3 0 13 5 0 0 5 20 25 13 26 94 142 86 82 1909 1434 1364 1578 1437 1208 1104 1016 1016 999 955 1054 978 979 1074 1091 1228 1127 969 785 465 146 104 95 136 438
0 0 0 0 0 0 0 0 0 0 0 15 0 6 2 23 18 3 0 27 93 120 78 1825 1757 1283 1267 1314 1537 1394 1321 1312 1276 1332 1364 1248 1312 1293 1437 1476 1520 1103 777 307 165 106 51 43 212
0 0 0 0 0 0 0 0 0 0 3 19 4 0 0 0 0 0 3 0 8 76 172 760 1967 1900 1438 961 1239 1653 1507 1629 1602 1548 1539 1393 827 565 912 1087 1405 1334 809 416 309 145 125 78 34
0 0 0 0 0 0 0 0 0 0 2 12 2 7 0 6 18 1 11 42 57 16 185 243 373 1653 1658 1036 849 1430 1387 1313 1303 929 970 1111 844 980 841 613 1625 973 764 502 341 188 144 62 0
0 0 0 0 0 2 14 2 2 2 7 29 9 6 8 0 15 10 17 38 47 4 18 376 695 1320 1462 977 859 1647 1317 1115 985 879 991 1454 1465 1333 1049 650 712 710 636 378 568 296 109 94 9
0 0 0 0 0 7 1 2 0 0 13 25 60 46 41 3 12 0 2 17 30 10 185 399 1080 1678 1245 994 994 1803 1711 1303 1094 1082 1539 1521 1688 1572 1067 751 1053 707 639 730 500 267 242 158 474
0 0 0 0 0 6 3 0 0 0 9 4 13 17 9 20 12 7 20 4 47 75 255 551 1640 1493 1869 2007 1124 1563 1778 1510 1320 1565 1683 1716 1475 1255 1329 1161 1343 1279 914 849 800 656 554 333 213
0 0 0 0 0 0 0 0 0 0 1 2 0 0 0 34 27 12 46 96 291 291 378 719 2099 1838 1914 1403 2324 2123 1945 1746 1640 1560 1610 1673 1391 1300 1405 1698 1411 1240 1145 771 825 582 548 275 206
0 0 0 0 0 0 10 0 0 0 0 0 0 0 3 15 14 6 0 197 590 380 662 992 2056 2470 2226 2406 2016 3597 2402 2171 1738 1521 1710 1446 1382 1485 1878 1588 1407 1087 1055 964 758 628 708 525 173
0 0 0 0 0 0 11 3 0 0 0 0 4 10 19 34 16 25 6 136 763 954 633 1657 357 2547 2612 2698 2499 2106 2166 1976 1785 1182 1387 1321 1781 1678 1830 1498 1200 1135 1408 1041 712 591 532 623 389
0 0 0 0 0 0 33 6 0 0 3 0 2 8 6 6 3 58 60 108 439 1040 1939 1730 1883 2608 2643 2934 2721 2359 2882 1792 1325 1362 1181 1371 1500 1529 1496 1262 1270 1450 1104 863 685 562 557 474 410
0 0 0 0 0 4 20 16 0 0 37 22 37 25 0 0 0 41 127 165 411 988 1080 2276 2651 3129 2597 2705 2689 2189 1945 1421 1354 1207 1278 1821 1532 1567 1539 1263 1570 1309 977 935 584 442 476 328 230
0 0 0 0 0 0 26 0 0 0 17 0 19 4 0 0 68 137 78 226 1049 813 957 2329 2755 2992 2464 2442 2054 1538 1345 1131 963 1259 1414 1445 1496 1357 1556 1454 1175 1011 971 701 520 434 417 48 89
0 0 0 0 0 5 21 7 1 0 1 15 4 3 6 3 2 77 256 525 1215 1398 1730 1981 2055 2577 2405 2312 1978 1259 1060 794 948 1029 1498 1507 1298 1223 1420 1367 1159 1065 843 648 527 448 187 97 206
0 0 0 0 0 0 2 14 0 0 0 2 0 0 0 0 0 0 25 1300 1140 1229 1454 1480 1982 2406 2262 1704 1740 2434 1542 1759 1487 1553 1342 1619 1178 1174 1269 995 1130 890 715 557 520 533 523 539 560
0 0 0 0 0 0 0 1 0 0 0 0 2 0 0 0 2 1 96 1125 1169 971 1088 1462 1940 2008 1913 2038 1623 1579 1049 1065 1328 1104 1264 1514 1448 1269 1050 1053 581 729 685 729 714 624 428 439 310
0 0 0 0 0 0 0 0 0 0 0 0 0 0 0 0 13 42 457 1163 900 1000 1146 1493 1666 1562 1808 1870 1447 1575 1718 1610 1524 1125 1658 1451 1297 1030 813 909 939 805 888 736 610 632 436 594 431
0 0 0 0 0 12 0 0 0 0 0 0 0 0 0 2 1 34 1012 993 972 950 1100 1404 1389 1560 1429 1620 2131 1823 1645 1479 1547 1265 1477 1368 1483 1130 1097 781 877 929 853 646 913 727 636 539 492
0 5 0 0 0 0 0 0 0 0 0 0 0 0 0 6 15 824 990 900 902 966 1184 1282 1276 1300 1239 1479 1489 1487 1546 1221 1204 1317 1257 1237 1316 1062 1108 911 904 882 853 812 735 703 728 507 403
0 0 0 0 0 0 0 0 0 0 0 0 0 0 0 82 591 939 940 885 821 1089 1118 1061 1193 1088 1065 1177 1279 1425 1639 1362 1408 1444 1187 1249 1250 1104 983 754 685 812 813 594 783 741 423 419 590
0 2 0 1 0 0 0 0 0 0 0 0 0 0 155 763 943 928 863 846 967 1036 1098 1029 1036 945 980 1056 1316 1416 1458 1533 1389 1350 1247 1234 1194 834 812 670 864 774 700 745 739 416 557 506 376
1 0 0 9 0 0 0 0 0 12 6 29 0 0 665 933 829 767 823 984 974 1013 1113 1093 1007 889 895 990 986 771 1183 1178 1309 1227 1091 919 1063 500 876 907 839 788 641 637 621 548 997 446 266
0 0 7 2 1 0 0 0 221 123 41 0 0 0 640 894 782 852 784 963 923 861 830 1002 845 684 757 834 1215 1207 1226 755 1195 837 974 990 718 790 541 520 901 703 591 458 548 702 337 227 150
2 0 3 0 1 2 0 0 23 6 22 2 0 4 657 798 765 796 826 810 768 791 742 740 621 463 585 620 870 1214 682 698 923 929 983 875 492 563 557 502 605 400 605 872 500 434 605 517 299

GFSSGP_con_mucape_033.txt.gz
CAPE
0 0 0 0 0 0 0 0 0 1 1 0 0 0 0 0 0 0 0 112 165 47 200 388 666 443 382 276 155 98 65 41 9 0 0 0 0 0 0 0 0 0 0 0 0 0 0 0 0
0 0 0 0 0 0 0 0 1 42 23 1 0 0 0 0 0 0 1 257 123 20 99 138 720 581 485 325 228 140 108 84 63 0 0 0 0 0 0 0 0 0 0 0 0 0 0 0 0
0 0 0 0 0 0 0 0 5 5 11 2 0 0 0 0 0 0 6 407 143 0 37 86 812 637 579 380 269 206 175 185 86 0 0 0 0 0 0 0 0 0 0 2 32 27 22 1 4
0 0 0 0 0 0 0 0 0 1 0 0 0 0 0 0 0 0 236 328 216 82 2 262 826 725 634 509 398 361 407 323 200 113 55 9 20 20 23 23 0 0 26 72 164 225 232 196 159
0 0 0 0 0 0 3 0 29 7 3 0 0 0 0 0 6 5 88 301 259 208 14 467 946 1000 980 820 663 572 556 511 482 437 253 244 315 346 209 107 88 138 246 371 435 388 307 346 349
0 0 0 0 0 0 0 0 95 25 2 20 0 0 0 0 0 11 1 30 204 215 94 460 967 1238 1167 1057 925 748 718 649 676 661 653 636 659 641 579 331 251 382 584 673 387 361 204 219 309
0 0 0 0 0 0 0 0 0 1 8 0 0 0 0 0 0 0 6 0 1 119 113 412 512 942 1476 1229 1070 961 827 782 702 697 796 879 876 816 837 853 740 700 990 703 532 285 150 149 186
0 0 0 0 0 0 0 0 0 0 0 0 0 0 0 0 0 0 5 0 1 75 354 350 416 439 800 820 1394 1173 1023 968 866 858 920 1015 1022 1039 1164 1092 1231 1069 1032 923 577 235 211 137 139
2 0 0 0 0 0 0 0 0 0 0 0 0 0 3 0 6 2 2 6 27 43 641 507 409 431 490 575 989 1290 1341 1162 1153 1079 1093 1035 687 783 863 1062 1154 1368 1388 1155 697 381 326 210 163
16 0 0 0 0 0 0 0 0 0 0 0 0 0 0 0 0 0 0 0 0 0 631 729 581 519 549 648 644 818 749 702 811 771 798 910 697 539 434 681 1492 1669 1702 1330 954 772 410 254 67
0 0 0 0 0 0 0 1 0 0 0 0 0 0 0 0 0 0 0 0 0 0 90 922 732 636 610 668 589 731 697 757 892 850 837 869 609 432 593 569 940 1220 1213 756 696 527 388 108 2
0 0 0 0 0 0 0 2 0 0 0 0 0 0 0 0 0 0 0 0 0 0 0 324 1014 1014 810 687 534 816 785 749 761 807 700 679 578 700 713 785 567 633 591 351 217 314 355 104 52
0 0 0 0 0 0 0 0 2 0 10 3 0 0 0 0 8 1 1 0 0 0 0 9 417 1233 1025 828 590 805 823 816 690 679 615 537 944 1067 1102 781 189 535 406 346 365 361 238 159 69
0 0 0 0 0 0 0 0 0 0 0 0 0 0 0 0 0 0 0 0 0 0 9 0 446 762 1035 901 588 920 993 990 847 823 741 898 1030 1098 944 531 496 614 496 356 247 205 110 85 1
0 0 0 0 0 0 0 0 0 0 0 0 0 0 0 0 0 0 0 0 0 36 0 0 9 575 868 828 663 1031 1157 1202 1195 965 1007 1258 1427 1149 726 556 639 708 538 450 222 160 208 134 25
0 0 0 0 0 0 0 0 0 0 0 0 0 0 0 0 0 0 0 5 30 17 0 0 1454 1075 1268 797 1737 1200 1220 1277 1190 1063 1236 1385 1340 811 512 588 581 568 467 407 253 177 225 189 140
0 0 0 0 0 0 0 0 0 0 0 0 0 0 0 0 0 0 0 0 0 22 0 118 1020 1384 1512 1470 1282 1570 1426 1014 1028 965 834 794 521 574 703 770 710 663 548 483 400 276 199 132 116
0 0 0 0 0 0 0 0 0 0 0 0 0 0 0 0 0 0 0 1 5 103 493 386 1223 1743 1861 1849 1668 1500 1416 1160 979 876 697 607 630 688 664 667 680 668 651 464 367 296 186 134 62
0 0 0 0 0 0 0 0 0 0 0 0 0 0 0 0 0 0 0 0 106 200 398 1005 1794 1978 1910 1824 1718 1495 1414 1300 1177 933 893 659 555 732 817 833 727 829 698 430 330 304 109 42 52
0 0 0 0 0 0 0 0 0 0 0 0 0 0 0 0 0 0 0 2 161 313 972 1337 1962 1901 1896 1688 1667 1538 1348 1203 899 748 464 499 720 693 598 506 657 504 472 430 308 198 116 51 14
0 0 0 0 0 0 0 0 0 0 0 0 0 0 0 0 0 0 0 227 301 577 849 948 1379 1874 1866 1603 1450 1349 1140 770 336 289 365 542 489 491 478 570 486 480 451 344 231 200 195 100 60
0 0 0 0 0 0 0 0 0 0 0 0 0 0 0 0 0 0 0 324 454 660 699 998 1715 1608 1516 1424 1132 747 514 476 391 410 462 743 544 580 669 534 486 372 192 217 271 233 256 213 139
0 0 0 0 0 0 0 0 0 0 0 0 0 0 0 0 0 0 0 444 571 608 907 1468 1446 1366 1175 1059 688 522 239 215 393 412 501 600 608 495 365 383 329 368 266 139 124 179 183 180 167
0 0 0 0 0 0 0 0 0 0 0 0 0 0 0 0 0 19 402 548 586 840 1197 1251 1186 1027 1055 530 610 282 308 511 209 514 570 532 412 472 524 473 308 309 200 168 174 190 188 183 210
0 0 0 0 0 0 0 0 0 0 0 0 0 0 0 0 8 443 518 517 697 914 976 967 844 913 663 970 430 535 329 267 432 487 461 510 533 556 597 307 295 168 159 270 246 203 122 159 176
0 0 0 0 0 0 0 0 0 0 0 0 0 0 0 40 360 475 540 537 707 898 887 816 888 639 647 517 432 465 382 339 576 497 501 504 330 447 254 169 125 303 332 300 147 85 51 156 88
0 0 0 0 0 0 0 0 0 0 0 0 0 11 326 496 484 579 526 585 775 835 822 895 710 536 622 411 349 441 462 540 352 306 351 441 420 17 49 81 199 324 258 147 90 65 184 184 52
0 0 0 0 0 0 0 0 0 0 0 0 0 73 508 542 512 501 446 699 735 734 754 775 615 508 541 455 273 316 470 379 464 295 118 297 313 183 72 312 375 254 207 208 176 94 140 46 34
0 0 0 0 0 0 0 0 0 0 0 0 0 352 520 461 438 369 604 670 646 724 615 672 539 485 461 254 229 316 384 375 285 279 243 210 140 97 316 415 349 211 295 297 120 152 128 42 34
0 0 0 0 0 0 0 0 0 8 3 0 47 425 442 403 424 512 573 573 594 587 660 533 424 334 384 221 406 317 408 347 192 238 184 2 61 9 36 239 269 249 210 158 107 28 47 71 52

GFSSGP_con_mucape_036.txt.gz
CAPE
0 0 0 0 0 0 0 0 0 0 0 0 0 0 0 0 0 0 0 56 55 8 347 712 812 586 425 304 181 117 68 51 40 0 0 0 0 0 0 0 0 0 0 0 0 0 0 0 0
0 0 0 0 0 0 0 0 0 23 1 0 0 0 0 0 0 0 95 127 72 27 206 243 798 656 625 446 272 190 103 113 88 25 0 0 0 0 0 0 0 0 0 0 0 0 0 0 0
0 0 0 0 0 0 0 0 1 9 0 0 0 0 0 0 0 0 0 160 37 17 105 95 885 733 730 540 341 238 177 152 125 40 14 0 0 0 0 0 0 0 0 0 7 22 29 23 20
0 0 0 0 0 0 0 8 0 0 0 2 0 2 0 0 0 0 205 137 0 0 3 339 870 786 807 694 504 335 295 245 210 128 87 47 18 37 25 0 0 0 17 38 75 149 182 178 166
0 0 0 0 0 0 0 0 0 0 1 3 0 0 0 4 3 244 237 104 0 0 0 247 964 948 931 826 639 462 384 370 406 414 244 220 196 170 66 70 72 73 95 149 291 406 363 319 362
0 0 0 0 0 0 0 0 0 0 0 2 0 0 0 0 16 291 237 96 0 0 0 67 983 1015 938 859 678 547 548 528 586 606 582 499 485 482 263 207 151 161 301 464 545 390 384 324 273
0 0 0 0 0 0 0 0 0 0 6 5 2 0 2 0 0 116 222 139 34 0 0 33 285 706 1204 981 876 754 684 654 702 724 702 736 752 767 773 655 407 354 554 710 769 543 491 250 189
0 0 0 0 0 0 0 0 0 0 3 0 0 0 0 0 0 2 121 53 79 33 0 28 74 277 430 575 1259 1038 835 834 769 860 882 924 970 1001 968 836 881 662 811 1064 856 727 581 365 268
0 0 0 0 0 0 0 0 0 0 0 0 0 0 0 0 0 0 1 0 57 95 24 137 165 45 225 351 701 1206 1058 1032 938 888 953 850 642 636 628 768 843 896 1174 1380 1133 1086 767 480 312
0 0 0 0 0 0 0 0 0 0 0 0 0 0 1 0 3 1 0 0 0 73 154 261 247 177 136 226 304 696 578 531 568 478 474 562 576 459 577 733 1081 1175 1535 1735 1581 1322 738 597 259
0 0 0 0 0 0 0 0 0 0 0 0 0 0 0 0 0 0 3 0 0 1 180 369 325 265 229 138 242 655 475 420 481 479 439 548 472 460 505 455 523 878 1454 1169 1235 866 704 478 244
0 0 0 0 0 0 0 0 0 0 0 1 0 0 0 1 5 0 0 0 0 0 26 528 445 378 341 236 264 418 476 414 475 501 473 474 477 382 304 306 486 504 986 1184 981 644 447 315 249
0 0 0 0 0 0 0 0 0 0 0 0 0 0 0 0 0 0 0 0 0 0 0 320 541 506 427 366 375 426 452 416 461 539 472 441 413 342 267 304 758 759 635 748 580 251 241 271 258
0 0 0 0 0 0 0 0 0 0 0 0 1 1 0 0 0 0 0 0 0 0 1 1 559 587 551 461 422 473 521 424 387 463 454 443 411 414 462 792 947 771 367 434 320 314 376 313 123
0 0 0 0 0 0 0 0 0 0 0 0 0 0 0 0 0 0 0 0 0 0 0 0 179 720 755 636 529 558 650 583 496 453 492 596 630 576 612 1040 918 469 470 543 400 401 208 136 121
0 0 0 0 0 0 0 0 0 0 0 0 0 0 0 0 0 0 0 0 0 0 0 1 18 361 894 806 708 700 797 785 714 672 686 879 795 739 911 1032 906 565 614 569 552 450 165 154 101
0 0 0 0 0 0 0 0 0 0 0 0 0 0 0 0 0 0 0 0 0 0 0 3 54 164 493 696 718 826 952 969 971 950 1023 1081 1000 1094 1163 1155 469 516 532 510 472 402 337 259 133
0 0 0 0 0 0 0 0 0 0 0 0 0 0 0 0 0 0 0 0 0 0 0 0 286 613 706 711 997 948 1045 1148 1220 1291 1352 1197 1279 1341 1193 491 559 607 580 562 551 452 289 200 117
0 0 0 0 0 0 0 0 0 0 0 0 0 0 0 0 0 0 0 0 0 0 49 85 599 1025 1228 1139 1471 1352 1330 1279 1143 1059 1020 1103 1197 441 408 445 499 539 578 563 440 315 232 140 107
0 0 0 0 0 0 0 0 0 0 0 0 0 0 0 0 0 0 0 0 0 81 212 525 980 1350 1534 1443 1244 1338 1275 1178 1071 995 979 872 556 591 481 552 729 744 720 502 354 271 178 107 27
0 0 0 0 0 0 0 0 0 0 0 0 0 0 0 0 0 0 0 0 4 123 454 943 1402 1651 1682 1671 1491 1305 1207 1158 1146 1120 919 696 540 479 627 653 502 519 436 317 260 238 180 108 26
0 0 0 0 0 0 0 0 0 0 0 0 0 0 0 0 0 0 0 0 51 330 736 1412 1583 1799 1777 1708 1543 1370 1316 1244 1103 765 389 331 607 548 490 500 369 346 312 319 134 112 121 113 60
0 0 0 0 0 0 0 0 0 0 0 0 0 0 0 0 0 0 0 0 161 589 824 1536 1823 1827 1772 1594 1507 1459 1263 760 283 287 320 428 441 433 526 429 269 228 99 69 141 124 131 124 101
0 0 0 0 0 0 0 0 0 0 0 0 0 0 0 0 0 0 0 169 468 635 1000 1365 1621 1680 1574 1344 1143 656 472 382 339 358 448 542 542 502 382 331 259 153 87 39 25 7 46 73 84
0 0 0 0 0 0 0 0 0 0 0 0 0 0 0 0 0 93 188 343 557 926 1207 1341 1290 1209 1151 1017 571 428 433 308 276 320 368 373 319 337 345 349 242 63 49 2 44 160 98 79 92
0 0 0 0 0 0 0 0 0 0 0 0 0 0 0 0 0 131 240 416 699 991 1130 1164 1103 908 475 423 309 247 215 308 332 323 291 361 302 136 352 266 15 17 107 134 75 57 35 88 83
0 0 0 0 0 0 0 0 0 0 0 0 0 0 0 27 172 267 348 514 731 814 832 833 782 636 380 348 347 342 258 354 373 296 266 214 279 281 33 15 4 102 199 192 30 42 49 73 74
0 0 0 0 0 0 0 0 0 0 0 0 0 0 37 217 337 373 426 632 687 694 638 698 509 404 313 245 228 258 358 339 263 220 144 227 58 0 7 8 126 230 181 121 73 65 61 54 17
4 0 0 0 0 0 0 0 0 0 0 0 0 0 204 311 377 446 527 626 641 576 705 555 337 329 235 166 197 162 311 278 231 89 132 66 17 32 23 260 287 115 112 190 141 78 65 26 0
0 0 0 0 0 0 0 0 0 0 0 0 0 116 302 387 459 445 528 592 530 608 644 364 291 306 221 108 141 147 186 280 96 102 32 13 28 9 197 305 184 157 110 22 2 23 14 18 9

GFSSGP_con_mucape_042.txt.gz
CAPE
0 0 0 0 0 0 0 0 0 0 0 0 0 0 0 0 0 0 0 0 0 1 266 838 1180 954 689 513 375 256 125 47 9 0 0 0 0 0 0 0 0 0 0 0 0 0 0 0 0
0 0 0 0 0 0 0 0 0 0 0 0 0 0 0 0 0 0 0 0 0 45 318 389 1121 1025 856 663 516 403 222 143 77 38 0 0 0 0 0 0 0 0 0 0 0 0 0 0 0
0 0 0 0 0 0 0 0 0 0 0 0 0 0 0 0 0 0 0 11 2 87 263 240 1166 965 940 800 625 445 278 228 196 54 0 0 0 0 0 0 0 0 0 0 0 0 0 0 0
0 0 0 0 0 0 0 5 4 0 0 0 0 0 0 0 0 0 1 14 0 39 229 318 1159 955 971 930 776 541 329 286 228 129 59 10 0 22 12 0 0 0 0 0 7 56 88 104 116
0 0 0 0 0 0 0 0 0 0 0 0 0 0 0 0 0 21 10 7 8 23 140 222 1220 1054 1139 1099 927 656 505 437 353 273 176 127 154 106 35 16 6 4 33 66 99 180 243 410 400
0 0 0 0 0 0 0 0 0 0 0 0 0 0 0 0 3 37 45 8 21 30 66 93 1244 1117 1162 1175 1026 785 605 527 476 432 338 284 270 210 128 83 76 89 122 232 319 362 490 594 383
0 0 0 0 0 0 0 0 0 0 0 0 0 0 0 0 0 86 53 59 1 0 1 0 577 794 1352 1227 1079 906 702 592 598 542 476 445 435 373 299 282 211 203 278 337 445 646 876 771 513
0 0 0 0 0 0 0 0 0 0 0 0 0 0 0 0 2 112 75 62 48 0 0 0 142 363 436 768 1312 1170 882 753 698 734 682 630 604 556 490 424 535 326 408 546 721 901 1113 915 816
0 0 0 0 0 0 0 0 0 0 0 0 0 0 0 0 4 128 116 83 49 12 0 0 0 140 185 389 600 1290 937 963 888 874 906 600 343 374 308 493 497 642 623 839 952 1128 1415 1083 657
0 0 0 0 0 0 0 0 0 0 0 0 0 0 0 0 0 0 10 10 40 71 38 0 0 24 49 107 205 587 532 381 423 405 470 456 348 287 354 479 598 714 847 1102 1350 1519 1352 957 500
0 0 0 0 0 0 0 0 0 0 0 0 0 0 0 0 0 0 0 0 8 26 65 57 10 14 32 47 85 177 381 299 363 341 355 457 346 311 500 379 528 544 819 660 1135 1376 1332 900 520
0 0 0 0 0 0 0 0 0 0 0 0 0 0 0 0 0 0 0 0 0 2 12 39 103 67 40 37 40 70 245 261 253 284 297 333 320 221 299 316 334 556 608 842 874 850 1092 976 534
0 0 0 0 0 0 0 0 0 0 0 0 0 0 0 0 0 0 0 0 0 0 0 9 45 90 106 74 56 71 114 222 182 219 267 218 234 138 113 290 217 206 261 366 611 880 882 823 517
0 0 0 0 0 0 0 0 0 0 0 0 0 0 0 0 0 0 0 0 0 0 0 0 1 66 87 113 120 113 99 135 192 171 206 207 138 103 104 155 133 111 75 82 377 597 770 806 515
0 0 0 0 0 0 0 0 0 0 0 0 0 0 0 0 0 0 0 0 0 0 0 0 0 4 81 87 118 144 165 159 176 157 201 228 149 100 214 206 144 103 62 51 575 772 636 570 393
0 0 0 0 0 0 0 0 0 0 0 0 0 0 0 0 0 0 0 0 0 0 0 0 0 0 22 89 140 187 231 235 233 195 237 279 207 297 425 433 299 232 150 82 717 522 337 419 284
0 0 0 0 0 0 0 0 0 0 0 0 0 0 0 0 0 0 0 0 0 0 0 0 0 0 0 72 174 256 312 344 351 400 435 417 456 531 642 568 606 336 267 417 616 333 453 498 144
0 0 0 0 0 0 0 0 0 0 0 0 0 0 0 0 0 0 0 0 0 0 0 0 0 0 0 79 198 315 407 451 504 592 646 663 705 781 722 849 836 568 466 639 424 522 590 626 581
0 0 0 0 0 0 0 0 0 0 0 0 0 0 0 0 0 0 0 0 0 0 0 0 0 0 0 130 266 417 509 545 657 729 794 891 944 869 991 1052 954 806 809 431 421 546 600 475 279
0 0 0 0 0 0 0 0 0 0 0 0 0 0 0 0 0 0 0 0 0 0 0 0 0 0 0 105 317 472 517 619 799 904 987 1078 1011 1125 1196 1180 887 980 804 367 459 477 274 416 225
0 0 0 0 0 0 0 0 0 0 0 0 0 0 0 0 0 0 0 0 0 0 0 0 0 0 0 101 293 475 564 717 871 1050 1142 1222 1338 1344 1253 1046 1062 821 347 443 370 174 282 96 37
0 0 0 0 0 0 0 0 0 0 0 0 0 0 0 0 0 0 0 0 0 0 0 0 0 15 138 297 408 476 677 877 1041 1222 1336 1391 1420 1283 1204 876 352 253 410 485 230 186 46 13 34
0 0 0 0 0 0 0 0 0 0 0 0 0 0 0 0 0 0 0 0 0 0 0 1 173 372 533 658 742 854 979 1119 1189 1146 1125 1082 1006 1184 664 217 271 474 589 312 82 11 0 22 16
0 0 0 0 0 0 0 0 0 0 0 0 0 0 0 0 0 0 0 0 0 0 0 247 605 790 873 947 1008 1007 1037 1051 1108 1095 1045 946 397 252 455 398 540 466 360 134 0 0 0 0 4
0 0 0 0 0 0 0 0 0 0 0 0 0 0 0 0 0 0 0 0 0 0 93 562 909 1070 1151 1213 1249 1244 1198 1170 1113 1017 490 191 270 323 393 455 386 406 109 0 0 0 0 0 11
0 0 0 0 0 0 0 0 0 0 0 0 0 0 0 0 0 0 0 0 0 37 440 849 1090 1254 1374 1397 1296 1193 1073 1009 625 96 101 168 254 298 328 333 219 111 0 0 0 0 1 18 17
0 0 0 0 0 0 0 0 0 0 0 0 0 0 0 0 0 0 0 0 67 269 882 1122 1252 1337 1348 1234 1099 866 356 212 164 165 220 266 257 205 109 109 100 60 0 0 0 0 10 22 31
0 0 0 0 0 0 0 0 0 0 0 0 0 0 0 0 0 0 20 343 267 611 1038 1204 1192 1209 1129 921 456 309 245 133 147 159 152 161 114 41 58 51 0 0 1 12 5 0 1 21 28
18 0 0 0 0 0 0 0 0 0 0 0 0 0 0 0 0 0 578 368 467 676 960 1095 987 898 747 357 140 125 112 123 118 110 119 33 2 0 0 0 0 12 66 26 27 42 37 43 59
0 0 0 0 0 0 0 0 0 0 0 0 0 0 0 3 0 178 419 462 595 716 934 883 593 359 238 102 72 59 81 82 71 33 18 0 0 0 0 5 52 52 1 9 46 58 42 33 29

GFSSGP_con_mucape_045.txt.gz
CAPE
0 0 0 0 0 0 0 0 0 0 0 0 0 0 0 0 0 0 0 0 58 97 461 963 1284 971 750 456 336 228 156 106 75 45 46 37 28 0 0 0 0 0 0 0 0 0 0 0 0
0 0 0 0 0 0 0 0 0 0 0 0 0 0 0 0 0 0 0 9 54 228 633 281 1403 1067 946 685 510 331 201 123 84 51 34 26 42 14 0 0 0 0 0 0 0 0 0 0 0
0 0 0 0 0 0 0 0 0 0 0 0 0 0 0 0 0 0 3 9 62 302 361 454 1525 1198 1140 854 656 463 315 210 173 100 63 20 36 37 28 12 0 0 0 0 0 0 0 0 0
0 0 0 0 0 0 0 0 0 0 0 0 0 0 0 0 0 0 62 33 109 254 233 402 1489 1368 1258 1072 818 617 440 341 297 186 157 134 84 100 50 23 3 0 0 0 9 48 61 70 81
0 0 0 0 0 0 0 0 0 0 0 0 0 0 0 0 0 93 174 143 114 223 305 208 1418 1428 1388 1315 1114 820 522 445 409 318 266 213 180 176 140 86 18 28 46 48 46 124 201 263 400
0 0 0 0 0 0 0 0 2 0 0 0 0 0 0 0 47 186 166 289 179 278 373 217 1150 1362 1351 1305 1271 980 617 535 510 432 369 313 302 263 209 185 118 87 123 162 220 305 353 502 397
0 0 0 0 0 0 0 0 0 0 0 0 0 0 0 0 23 242 206 235 259 252 369 313 467 979 1246 1370 1238 1062 795 674 598 509 415 412 471 401 330 294 274 208 328 358 461 513 632 611 492
0 0 0 0 0 0 0 0 0 0 0 0 0 0 0 0 128 337 218 176 136 237 261 220 434 579 427 519 1407 1250 998 860 713 676 614 587 578 547 444 341 412 368 411 498 626 714 932 902 626
0 0 0 0 0 0 0 0 0 0 0 0 0 0 0 0 210 297 299 241 155 61 89 116 65 479 453 371 665 1338 1041 1062 926 842 837 561 197 219 211 240 524 713 634 738 794 1001 1281 1163 789
0 0 0 0 0 0 0 0 0 0 0 0 0 0 0 0 0 70 258 261 267 312 231 18 47 217 466 192 577 871 550 475 363 283 478 502 288 319 185 310 561 927 906 1041 1185 1318 1328 1181 692
0 0 0 0 0 0 0 0 0 0 0 0 0 0 0 0 0 0 0 31 201 285 287 186 40 83 242 207 242 658 936 826 824 545 984 824 413 428 395 312 440 468 806 473 753 932 1204 1045 916
0 0 0 0 0 0 0 0 0 0 0 0 0 0 0 0 0 0 0 0 0 0 74 311 214 80 257 253 182 254 497 719 550 530 934 799 769 513 436 354 283 605 446 605 799 929 1231 1412 1271
0 0 0 0 0 0 0 0 0 0 0 0 0 0 0 0 0 0 0 0 0 0 0 12 352 509 482 450 204 314 375 427 612 429 681 631 378 600 467 475 326 455 693 813 772 994 1250 1399 1462
0 0 0 0 0 0 0 0 0 0 0 0 0 0 0 0 0 0 0 0 0 0 0 0 11 928 487 470 571 403 459 373 409 395 512 722 446 704 485 544 520 649 562 506 533 828 1265 1783 1438
0 0 0 0 0 0 0 0 0 0 0 0 0 0 0 0 0 0 0 0 0 0 0 9 13 17 858 888 786 531 358 326 362 372 434 516 619 575 512 384 498 499 573 572 549 735 1157 1320 1482
0 0 0 0 0 0 0 0 0 0 0 0 0 0 0 0 0 0 0 0 0 0 0 6 0 0 241 774 867 550 339 309 372 452 444 553 609 599 544 445 414 500 501 516 436 382 1284 1539 1478
0 0 0 0 0 0 0 0 0 0 0 0 0 0 0 0 0 0 0 0 0 0 0 0 0 0 74 692 533 690 541 394 464 550 525 610 631 585 620 495 598 491 373 517 424 612 1270 1440 1524
0 0 0 0 0 0 0 0 0 0 0 0 0 0 0 0 0 0 0 0 0 0 0 0 0 0 14 171 579 550 640 650 670 688 691 732 798 739 747 697 650 580 573 442 490 1061 1085 1077 1117
0 0 0 0 0 0 0 0 0 0 0 0 0 0 0 0 0 0 0 0 0 0 0 0 0 0 0 84 309 553 707 823 808 844 914 966 1028 890 819 759 773 707 791 621 944 1185 1231 996 475
0 0 0 0 0 0 0 0 0 0 0 0 0 0 0 0 0 0 0 0 0 0 0 7 0 0 0 79 593 758 885 568 573 965 1102 1142 1099 912 1047 975 930 838 517 1102 1196 1079 986 992 469
0 0 0 0 0 0 0 0 0 0 0 0 0 0 0 0 0 0 0 0 0 0 0 0 0 0 17 328 653 802 727 671 836 1083 1156 942 1117 1125 1088 1074 1038 847 1243 1237 1174 1097 996 331 110
0 0 0 0 0 0 0 0 0 0 0 0 0 0 0 0 0 0 0 0 0 0 0 0 0 70 165 540 778 1001 1138 1145 1160 1157 1327 1295 1335 1229 1209 1083 1088 1307 1248 1271 1055 556 458 282 244
0 0 0 0 0 0 0 0 0 0 0 0 0 0 0 0 0 0 0 0 0 0 0 0 190 517 471 614 911 1150 1224 1170 1204 1213 1484 1499 1494 1331 1246 1171 1203 1150 1042 1056 1134 543 91 79 554
0 0 0 0 0 0 0 0 0 0 0 0 0 0 0 0 0 0 0 0 0 0 0 36 703 959 739 851 1011 1237 1239 1045 1264 1414 1469 1383 1277 1149 1218 730 917 1126 984 977 901 763 568 300 458
1 0 0 0 0 0 0 0 0 0 0 0 0 0 0 0 0 0 0 0 0 0 0 452 1020 1067 960 904 895 1112 1152 1341 1478 1396 1105 945 848 1037 1082 1036 1141 989 887 720 576 545 516 512 428
0 0 0 0 0 0 0 0 0 0 0 0 0 0 0 0 0 0 0 0 0 0 97 718 1188 1159 965 805 838 935 998 1021 1005 931 850 837 812 891 983 969 927 732 558 473 488 449 424 433 470
0 0 0 0 0 0 0 0 0 0 0 0 0 0 0 0 0 0 0 0 0 55 312 1015 1252 1096 948 1013 1022 1012 988 901 724 748 805 735 821 822 835 843 808 598 472 471 505 434 524 605 576
18 0 0 0 0 0 0 0 0 0 0 0 0 0 0 0 0 0 0 77 102 479 1003 1206 1151 1077 1094 1023 975 913 688 570 583 618 679 691 710 642 742 677 674 598 460 563 732 605 618 667 516
43 44 9 0 0 0 0 0 0 0 0 0 0 0 0 0 0 100 41 299 455 937 1106 1091 1073 1067 977 862 507 442 463 518 610 663 585 612 612 592 531 411 334 452 615 787 854 727 577 547 214
4 27 28 0 0 0 0 0 0 0 0 0 0 0 0 0 4 86 433 731 618 1103 955 1064 1020 876 707 427 447 476 459 472 575 533 485 360 277 194 188 250 359 491 606 718 681 653 483 379 24

GFSSGP_con_mucape_048.txt.gz
CAPE
0 0 0 0 0 0 0 0 0 0 0 0 0 0 0 0 2 26 18 48 82 104 435 935 1242 1160 1138 939 719 425 312 237 230 250 200 138 78 28 0 0 0 0 0 0 0 0 0 0 0
0 0 0 0 0 0 0 0 0 0 0 0 0 0 0 2 0 0 0 78 121 252 696 95 1225 1089 1072 841 695 518 408 266 233 245 181 99 95 67 7 0 0 0 0 0 0 0 0 0 0
0 0 0 0 0 0 0 0 0 0 0 0 0 0 0 24 17 0 26 77 154 504 687 140 1293 1067 958 754 657 520 437 292 265 235 167 111 110 76 49 41 34 0 0 0 0 14 21 32 32
0 0 0 0 0 0 0 0 0 0 0 0 0 0 0 0 7 1 81 52 197 270 438 760 1276 1165 1086 916 782 544 441 325 291 273 200 138 120 96 87 72 63 12 0 2 19 63 80 101 123
0 0 0 0 0 0 0 0 0 0 0 0 0 0 0 1 28 22 114 43 157 195 205 518 1434 1304 1277 1173 976 717 539 385 380 348 283 221 173 157 123 115 49 19 27 37 67 116 182 228 307
0 0 0 0 0 0 0 0 0 0 0 0 0 1 0 72 118 61 89 128 103 263 264 221 1470 1451 1375 1314 1111 862 668 538 469 446 345 323 296 257 188 167 156 185 168 137 135 237 329 379 520
0 0 0 0 0 0 0 0 13 0 0 0 15 1 0 5 55 118 150 298 305 384 603 403 598 1029 1463 1427 1281 1092 806 664 580 459 459 390 386 353 302 315 313 359 484 566 514 415 484 598 607
0 0 0 0 0 0 0 0 48 3 0 0 0 1 0 0 272 308 210 347 449 508 472 618 561 387 303 330 1499 1420 1137 834 688 677 648 553 549 552 438 387 413 515 622 609 793 700 737 927 714
0 0 0 0 0 0 0 0 18 0 0 0 0 0 0 55 280 189 135 115 131 238 587 621 430 471 347 69 299 1396 1182 1055 964 825 809 501 92 182 147 184 390 701 752 795 754 848 1061 1124 1001
0 0 0 0 0 0 0 0 0 0 0 0 0 0 0 0 225 130 122 130 101 187 351 572 803 504 589 180 371 911 452 453 255 127 162 212 86 134 94 187 613 863 951 1055 1095 1202 1208 1213 919
0 0 0 0 0 0 0 0 0 0 0 0 0 0 0 0 0 8 57 135 131 213 356 568 910 798 658 526 323 590 801 588 706 366 745 611 173 212 209 159 313 378 786 493 739 944 1204 1049 1047
0 0 0 0 0 0 0 0 0 0 0 0 0 0 0 0 0 0 0 0 0 44 143 395 1016 1225 1100 675 559 562 555 709 720 722 1313 1101 687 791 427 256 282 367 340 452 577 624 1233 1237 1182
0 0 0 0 0 0 0 0 0 0 0 0 0 0 0 0 0 0 0 0 0 0 0 29 298 1565 1400 1782 930 1229 1401 832 981 884 1020 817 522 1010 573 670 256 345 341 422 608 722 1071 1234 1297
0 0 0 0 0 0 0 0 0 0 0 0 0 0 0 0 0 0 0 0 0 0 22 24 123 912 1767 2090 2144 1857 1511 1203 941 840 804 1343 869 1372 597 630 443 308 376 349 700 543 948 1193 1197
0 0 0 0 0 0 0 0 0 0 0 0 0 1 0 0 0 0 0 0 0 5 53 117 207 363 1410 1847 1928 1999 1302 1268 930 947 1282 1072 1447 1507 1247 635 648 405 550 556 507 581 888 830 1387
0 0 0 0 0 0 0 0 0 0 0 0 0 14 5 0 0 0 0 0 18 64 40 77 6 0 262 1299 1240 1291 910 943 1035 964 1122 1224 1344 1282 1314 798 762 616 668 472 481 441 352 411 1404
0 0 0 0 0 0 0 0 0 0 0 0 0 0 0 0 0 0 0 0 0 24 35 12 176 79 101 791 434 1111 1705 1179 976 1043 1139 1289 1350 1326 1128 1023 914 1072 629 497 442 330 296 352 1696
0 0 0 0 0 0 0 0 0 0 0 0 0 0 0 0 0 0 0 0 0 0 5 490 558 648 270 82 334 574 915 1166 1040 1068 1211 1359 1451 1322 1352 1233 1326 1225 805 566 421 358 296 1125 1534
0 0 0 0 0 0 0 0 0 0 0 0 0 0 0 0 0 0 0 0 0 0 56 702 381 1049 384 41 301 772 999 1263 1227 1274 1428 1513 1487 1491 1467 1509 1278 1284 861 739 594 545 950 1540 1283
0 0 0 0 0 0 0 0 0 0 0 0 0 0 0 0 0 0 0 0 0 0 57 463 337 781 543 149 812 834 1166 1264 1530 1543 1652 1632 1758 1731 1358 1732 1569 1369 1109 1061 1025 1144 1402 1118 1159
0 0 0 0 0 0 0 0 0 0 0 0 0 0 0 0 0 0 0 0 0 0 0 41 370 393 651 601 1029 1530 1628 1519 1485 1645 1876 1869 1700 1500 1522 1804 1556 1571 1252 1239 1670 1710 1459 1349 1134
0 0 0 0 0 0 0 0 0 0 0 0 0 0 0 0 0 0 0 0 0 0 0 0 7 281 567 1131 1778 2300 1717 1657 1688 1950 1985 1466 1641 1651 1761 1792 1513 1441 1559 1673 1668 1561 1548 1372 746
2 7 15 11 0 0 0 0 0 0 0 0 0 0 0 0 0 0 0 0 0 0 0 0 3 114 841 1369 1838 1836 2177 1925 1965 1917 2113 2186 2106 1781 1873 1747 1799 2107 1689 1603 1416 1435 1485 1095 1015
39 37 37 50 0 0 0 0 0 0 0 0 0 0 0 0 0 0 0 0 0 0 0 0 0 661 1429 1607 1723 2116 1998 2033 2074 2312 2413 2306 2020 1880 1916 2001 2133 2029 1641 1703 1650 1436 1048 966 659
39 87 0 0 0 0 0 0 0 0 0 0 0 0 0 0 0 0 0 0 0 0 0 0 428 1483 1796 1726 1751 2020 2359 2480 2748 2701 2411 2546 2278 2135 2166 1809 1730 1672 1664 1424 1442 1371 1033 855 690
47 71 77 0 0 0 0 0 0 0 0 0 0 0 0 0 0 0 0 0 0 0 0 91 760 1664 1926 1992 2150 2438 2633 2621 2636 2408 2266 1974 1836 1892 2142 1804 1742 1559 1355 1298 1210 853 659 711 817
132 105 88 19 26 43 0 0 0 0 0 0 0 0 0 0 0 0 248 99 41 0 8 435 1267 1834 1969 2101 2245 2370 2269 2236 2034 1993 1852 1415 1296 1455 1900 1726 1550 1313 1187 1125 928 535 730 724 788
240 136 103 51 0 0 0 0 0 0 0 0 0 0 0 0 0 74 491 486 484 322 669 1172 1728 1998 2072 1999 2015 1923 1898 1816 1857 1716 1227 1257 1452 1342 1601 1523 1248 1214 940 785 737 530 633 660 872
41 95 36 93 74 4 0 0 3 0 0 0 0 0 0 0 0 196 530 458 783 1039 1446 1828 1954 2034 2002 1909 1803 1742 1479 1271 1261 1291 1388 1523 1485 1386 1185 1060 926 784 724 632 694 622 610 740 783
32 122 182 177 123 9 5 25 0 20 0 0 0 0 0 0 0 108 418 636 1153 1620 1830 2016 1961 1897 1834 1660 1446 1228 1181 1225 1363 1292 1273 1271 1123 836 684 547 472 460 384 704 834 752 482 640 693